| time (UTC) | temp F | wind direction | speed MPH | gust MPH | rain 1hr in | rain 24hr in | rain mn in | humidity % | barometer mb |
| 20260510073504 | 55 | 338 | 1.0 | 4.0 | 0.17 | 0.46 | 0.46 | 91 | 1013.3 |
| 20260510073404 | 55 | 329 | 1.0 | 4.0 | 0.17 | 0.46 | 0.46 | 91 | 1013.3 |
| 20260510073306 | 55 | 280 | 1.0 | 4.0 | 0.17 | 0.45 | 0.45 | 91 | 1013.3 |
| 20260510073205 | 55 | 192 | 1.0 | 4.0 | 0.17 | 0.45 | 0.45 | 91 | 1013.1 |
| 20260510073104 | 56 | 173 | 1.0 | 4.0 | 0.17 | 0.45 | 0.45 | 91 | 1013.1 |
| 20260510073010 | 56 | 187 | 1.0 | 4.0 | 0.17 | 0.45 | 0.45 | 91 | 1013.1 |
| 20260510072904 | 56 | 219 | 1.0 | 5.0 | 0.17 | 0.44 | 0.44 | 92 | 1013.1 |
| 20260510072804 | 56 | 219 | 1.0 | 5.0 | 0.17 | 0.44 | 0.44 | 92 | 1013.1 |
| 20260510072604 | 56 | 246 | 1.0 | 5.0 | 0.18 | 0.44 | 0.44 | 92 | 1013.2 |
| 20260510072505 | 55 | 270 | 2.0 | 5.0 | 0.18 | 0.44 | 0.44 | 91 | 1013.3 |
| 20260510072204 | 55 | 320 | 2.0 | 5.0 | 0.18 | 0.43 | 0.43 | 91 | 1013.2 |
| 20260510071904 | 55 | 339 | 3.0 | 6.0 | 0.18 | 0.43 | 0.43 | 91 | 1013.3 |
| 20260510071804 | 55 | 343 | 3.0 | 6.0 | 0.18 | 0.43 | 0.43 | 91 | 1013.3 |
| 20260510071604 | 55 | 345 | 4.0 | 6.0 | 0.19 | 0.43 | 0.43 | 91 | 1013.3 |
| 20260510071504 | 55 | 344 | 4.0 | 6.0 | 0.18 | 0.42 | 0.42 | 91 | 1013.3 |
| 20260510071404 | 55 | 345 | 4.0 | 6.0 | 0.18 | 0.42 | 0.42 | 91 | 1013.3 |
| 20260510071204 | 55 | 345 | 4.0 | 6.0 | 0.19 | 0.42 | 0.42 | 91 | 1013.4 |
| 20260510071005 | 55 | 346 | 4.0 | 6.0 | 0.18 | 0.41 | 0.41 | 91 | 1013.3 |
| 20260510070904 | 55 | 346 | 4.0 | 6.0 | 0.19 | 0.41 | 0.41 | 91 | 1013.3 |
| 20260510070804 | 55 | 346 | 4.0 | 6.0 | 0.19 | 0.41 | 0.41 | 91 | 1013.4 |
| 20260510070508 | 55 | 348 | 4.0 | 6.0 | 0.18 | 0.40 | 0.40 | 91 | 1013.4 |
| 20260510070404 | 55 | 348 | 4.0 | 6.0 | 0.19 | 0.40 | 0.40 | 91 | 1013.3 |
| 20260510070304 | 55 | 349 | 4.0 | 6.0 | 0.19 | 0.40 | 0.40 | 91 | 1013.3 |
| 20260510070105 | 55 | 348 | 4.0 | 6.0 | 0.19 | 0.39 | 0.39 | 91 | 1013.4 |
| 20260510070005 | 55 | 344 | 4.0 | 6.0 | 0.19 | 0.39 | 0.39 | 91 | 1013.3 |
| 20260510065914 | 55 | 343 | 4.0 | 6.0 | 0.19 | 0.39 | 0.39 | 91 | 1013.4 |
| 20260510065804 | 55 | 339 | 4.0 | 8.0 | 0.18 | 0.38 | 0.38 | 91 | 1013.4 |
| 20260510065704 | 55 | 338 | 4.0 | 8.0 | 0.18 | 0.37 | 0.37 | 91 | 1013.4 |
| 20260510065404 | 55 | 330 | 4.0 | 8.0 | 0.17 | 0.35 | 0.35 | 91 | 1013.4 |
| 20260510065306 | 55 | 328 | 4.0 | 8.0 | 0.17 | 0.35 | 0.35 | 91 | 1013.5 |
| 20260510065205 | 55 | 326 | 4.0 | 8.0 | 0.17 | 0.35 | 0.35 | 91 | 1013.5 |
| 20260510065104 | 55 | 324 | 3.0 | 8.0 | 0.17 | 0.34 | 0.34 | 90 | 1013.4 |
| 20260510065004 | 56 | 324 | 3.0 | 8.0 | 0.18 | 0.34 | 0.34 | 90 | 1013.5 |
| 20260510064904 | 56 | 323 | 2.0 | 8.0 | 0.18 | 0.34 | 0.34 | 90 | 1013.4 |
| 20260510064804 | 56 | 321 | 2.0 | 7.0 | 0.18 | 0.33 | 0.33 | 90 | 1013.4 |
| 20260510064704 | 56 | 318 | 1.0 | 6.0 | 0.19 | 0.33 | 0.33 | 90 | 1013.5 |
| 20260510064604 | 56 | 306 | 1.0 | 6.0 | 0.19 | 0.32 | 0.32 | 90 | 1013.5 |
| 20260510064504 | 56 | 263 | 1.0 | 3.0 | 0.20 | 0.32 | 0.32 | 90 | 1013.4 |
| 20260510064405 | 56 | 163 | 0.0 | 2.0 | 0.20 | 0.31 | 0.31 | 91 | 1013.5 |
| 20260510064204 | 56 | 151 | 0.0 | 2.0 | 0.21 | 0.30 | 0.30 | 90 | 1013.6 |
| 20260510064105 | 56 | 166 | 0.0 | 2.0 | 0.20 | 0.29 | 0.29 | 90 | 1013.6 |
| 20260510064005 | 56 | 258 | 1.0 | 2.0 | 0.21 | 0.29 | 0.29 | 90 | 1013.7 |
| 20260510063904 | 56 | 292 | 1.0 | 2.0 | 0.22 | 0.29 | 0.29 | 90 | 1013.7 |
| 20260510063804 | 56 | 297 | 0.0 | 2.0 | 0.22 | 0.29 | 0.29 | 90 | 1013.7 |
| 20260510063704 | 56 | 300 | 0.0 | 2.0 | 0.22 | 0.28 | 0.28 | 90 | 1013.7 |
| 20260510063604 | 56 | 300 | 0.0 | 2.0 | 0.22 | 0.28 | 0.28 | 90 | 1013.7 |
| 20260510063505 | 56 | 300 | 0.0 | 2.0 | 0.22 | 0.28 | 0.28 | 90 | 1013.7 |
| 20260510063404 | 56 | 300 | 0.0 | 2.0 | 0.22 | 0.28 | 0.28 | 90 | 1013.7 |
| 20260510063304 | 56 | 298 | 0.0 | 2.0 | 0.22 | 0.28 | 0.28 | 90 | 1013.7 |
| 20260510063204 | 56 | 295 | 0.0 | 2.0 | 0.22 | 0.28 | 0.28 | 90 | 1013.7 |
| 20260510063104 | 56 | 295 | 0.0 | 2.0 | 0.22 | 0.28 | 0.28 | 90 | 1013.7 |
| 20260510063004 | 56 | 292 | 0.0 | 2.0 | 0.21 | 0.27 | 0.27 | 90 | 1013.5 |
| 20260510062904 | 56 | 288 | 0.0 | 1.0 | 0.21 | 0.27 | 0.27 | 90 | 1013.5 |
| 20260510062704 | 56 | 292 | 0.0 | 1.0 | 0.21 | 0.26 | 0.26 | 90 | 1013.4 |
| 20260510062604 | 56 | 292 | 0.0 | 1.0 | 0.21 | 0.26 | 0.26 | 89 | 1013.5 |
| 20260510062505 | 56 | 296 | 0.0 | 1.0 | 0.21 | 0.26 | 0.26 | 90 | 1013.4 |
| 20260510062307 | 56 | 306 | 0.0 | 1.0 | 0.22 | 0.25 | 0.25 | 90 | 1013.5 |
| 20260510062204 | 56 | 324 | 0.0 | 1.0 | 0.22 | 0.25 | 0.25 | 90 | 1013.4 |
| 20260510062104 | 56 | 335 | 0.0 | 2.0 | 0.23 | 0.25 | 0.25 | 90 | 1013.6 |
| 20260510062004 | 56 | 338 | 0.0 | 3.0 | 0.24 | 0.25 | 0.25 | 90 | 1013.5 |
| 20260510061905 | 56 | 332 | 1.0 | 3.0 | 0.23 | 0.24 | 0.24 | 89 | 1013.5 |
| 20260510061804 | 55 | 330 | 1.0 | 5.0 | 0.24 | 0.24 | 0.24 | 89 | 1013.5 |
| 20260510061705 | 55 | 327 | 1.0 | 5.0 | 0.24 | 0.24 | 0.24 | 89 | 1013.5 |
| 20260510061605 | 56 | 325 | 2.0 | 6.0 | 0.23 | 0.24 | 0.24 | 89 | 1013.4 |
| 20260510061405 | 55 | 326 | 2.0 | 6.0 | 0.23 | 0.24 | 0.24 | 89 | 1013.4 |
| 20260510061304 | 55 | 324 | 2.0 | 6.0 | 0.23 | 0.24 | 0.24 | 89 | 1013.5 |
| 20260510061205 | 55 | 323 | 3.0 | 6.0 | 0.22 | 0.23 | 0.23 | 89 | 1013.5 |
| 20260510061104 | 55 | 321 | 3.0 | 6.0 | 0.22 | 0.23 | 0.23 | 89 | 1013.5 |
| 20260510061004 | 55 | 318 | 3.0 | 6.0 | 0.22 | 0.23 | 0.23 | 89 | 1013.3 |
| 20260510060904 | 56 | 313 | 3.0 | 6.0 | 0.21 | 0.22 | 0.22 | 89 | 1013.4 |
| 20260510060804 | 56 | 304 | 3.0 | 6.0 | 0.21 | 0.22 | 0.22 | 88 | 1013.4 |
| 20260510060704 | 56 | 295 | 3.0 | 6.0 | 0.21 | 0.22 | 0.22 | 88 | 1013.3 |
| 20260510060604 | 56 | 283 | 3.0 | 5.0 | 0.21 | 0.22 | 0.22 | 88 | 1013.3 |
| 20260510060504 | 56 | 273 | 3.0 | 5.0 | 0.20 | 0.21 | 0.21 | 88 | 1013.3 |
| 20260510060304 | 56 | 255 | 3.0 | 5.0 | 0.20 | 0.21 | 0.21 | 88 | 1013.3 |
| 20260510060204 | 56 | 248 | 3.0 | 5.0 | 0.20 | 0.20 | 0.20 | 88 | 1013.4 |
| 20260510060005 | 56 | 232 | 2.0 | 5.0 | 0.19 | 0.20 | 0.20 | 88 | 1013.3 |
| 20260510055805 | 56 | 229 | 2.0 | 6.0 | 0.18 | 0.19 | 0.19 | 88 | 1013.2 |
| 20260510055704 | 56 | 224 | 2.0 | 6.0 | 0.17 | 0.18 | 0.18 | 88 | 1013.2 |
| 20260510055604 | 56 | 217 | 2.0 | 6.0 | 0.17 | 0.18 | 0.18 | 88 | 1013.2 |
| 20260510055504 | 56 | 212 | 2.0 | 6.0 | 0.17 | 0.18 | 0.18 | 87 | 1013.1 |
| 20260510055306 | 56 | 198 | 3.0 | 7.0 | 0.17 | 0.17 | 0.17 | 87 | 1013.2 |
| 20260510055204 | 56 | 195 | 3.0 | 7.0 | 0.16 | 0.17 | 0.17 | 87 | 1013.0 |
| 20260510055104 | 56 | 196 | 3.0 | 7.0 | 0.16 | 0.17 | 0.17 | 87 | 1013.1 |
| 20260510055005 | 56 | 196 | 3.0 | 7.0 | 0.15 | 0.16 | 0.16 | 87 | 1013.1 |
| 20260510054904 | 56 | 196 | 3.0 | 7.0 | 0.15 | 0.16 | 0.16 | 87 | 1013.0 |
| 20260510054805 | 56 | 195 | 3.0 | 7.0 | 0.14 | 0.15 | 0.15 | 87 | 1013.1 |
| 20260510054705 | 56 | 201 | 3.0 | 7.0 | 0.13 | 0.14 | 0.14 | 86 | 1013.1 |
| 20260510054609 | 56 | 207 | 3.0 | 7.0 | 0.13 | 0.13 | 0.13 | 86 | 1013.1 |
| 20260510054505 | 56 | 213 | 3.0 | 7.0 | 0.11 | 0.12 | 0.12 | 86 | 1013.0 |
| 20260510054405 | 56 | 219 | 3.0 | 8.0 | 0.10 | 0.11 | 0.11 | 86 | 1013.1 |
| 20260510054310 | 56 | 225 | 3.0 | 9.0 | 0.09 | 0.09 | 0.09 | 86 | 1013.0 |
| 20260510054104 | 56 | 223 | 4.0 | 9.0 | 0.07 | 0.08 | 0.08 | 86 | 1012.9 |
| 20260510053904 | 56 | 215 | 5.0 | 9.0 | 0.06 | 0.07 | 0.07 | 86 | 1012.9 |
| 20260510053804 | 56 | 213 | 5.0 | 10.0 | 0.06 | 0.07 | 0.07 | 86 | 1012.8 |
| 20260510053505 | 56 | 208 | 7.0 | 12.0 | 0.06 | 0.06 | 0.06 | 85 | 1012.9 |
| 20260510053404 | 56 | 206 | 7.0 | 12.0 | 0.05 | 0.06 | 0.06 | 85 | 1013.0 |
| 20260510053104 | 56 | 205 | 6.0 | 12.0 | 0.05 | 0.06 | 0.06 | 84 | 1012.9 |
| 20260510053005 | 56 | 208 | 6.0 | 12.0 | 0.05 | 0.06 | 0.06 | 84 | 1013.0 |
| 20260510052904 | 56 | 211 | 6.0 | 12.0 | 0.04 | 0.05 | 0.05 | 84 | 1012.9 |
| 20260510052804 | 56 | 214 | 5.0 | 12.0 | 0.04 | 0.05 | 0.05 | 84 | 1012.9 |
| 20260510052704 | 56 | 216 | 5.0 | 12.0 | 0.04 | 0.05 | 0.05 | 83 | 1012.9 |
| 20260510052605 | 56 | 215 | 5.0 | 12.0 | 0.04 | 0.05 | 0.05 | 83 | 1012.8 |
| 20260510052505 | 56 | 216 | 5.0 | 9.0 | 0.03 | 0.04 | 0.04 | 83 | 1012.7 |
| 20260510052408 | 57 | 216 | 5.0 | 8.0 | 0.02 | 0.03 | 0.03 | 83 | 1012.6 |
| 20260510052306 | 57 | 215 | 5.0 | 9.0 | 0.02 | 0.03 | 0.03 | 83 | 1012.5 |
| 20260510052204 | 57 | 216 | 5.0 | 9.0 | 0.02 | 0.02 | 0.02 | 83 | 1012.4 |
| 20260510052005 | 57 | 213 | 4.0 | 9.0 | 0.01 | 0.02 | 0.02 | 82 | 1012.3 |
| 20260510051905 | 57 | 212 | 4.0 | 9.0 | 0.01 | 0.02 | 0.02 | 82 | 1012.3 |
| 20260510051804 | 57 | 214 | 4.0 | 9.0 | 0.00 | 0.01 | 0.01 | 81 | 1012.3 |
| 20260510051704 | 57 | 220 | 4.0 | 9.0 | 0.00 | 0.01 | 0.01 | 81 | 1012.4 |
| 20260510051604 | 57 | 232 | 3.0 | 9.0 | 0.00 | 0.01 | 0.01 | 82 | 1012.4 |
| 20260510051505 | 57 | 251 | 3.0 | 9.0 | 0.00 | 0.01 | 0.01 | 82 | 1012.4 |
| 20260510051404 | 57 | 279 | 3.0 | 9.0 | 0.00 | 0.01 | 0.01 | 82 | 1012.3 |
| 20260510051303 | 57 | 301 | 2.0 | 5.0 | 0.00 | 0.01 | 0.01 | 82 | 1012.3 |
| 20260510051204 | 57 | 310 | 2.0 | 5.0 | 0.00 | 0.01 | 0.01 | 82 | 1012.2 |
| 20260510051106 | 57 | 317 | 2.0 | 4.0 | 0.00 | 0.01 | 0.01 | 82 | 1012.2 |
| 20260510051004 | 57 | 317 | 2.0 | 4.0 | 0.00 | 0.01 | 0.01 | 81 | 1012.2 |
| 20260510050904 | 57 | 318 | 2.0 | 4.0 | 0.00 | 0.01 | 0.01 | 81 | 1012.1 |
| 20260510050814 | 57 | 318 | 1.0 | 4.0 | 0.00 | 0.01 | 0.01 | 81 | 1012.1 |
| 20260510050704 | 57 | 316 | 1.0 | 4.0 | 0.00 | 0.01 | 0.01 | 80 | 1012.1 |
| 20260510050604 | 57 | 316 | 1.0 | 4.0 | 0.00 | 0.01 | 0.01 | 80 | 1012.1 |
| 20260510050505 | 57 | 315 | 1.0 | 4.0 | 0.00 | 0.01 | 0.01 | 80 | 1012.1 |
| 20260510050404 | 57 | 315 | 0.0 | 2.0 | 0.00 | 0.01 | 0.01 | 80 | 1012.1 |
| 20260510050304 | 57 | 314 | 0.0 | 2.0 | 0.00 | 0.01 | 0.01 | 80 | 1012.1 |
| 20260510050005 | 57 | 315 | 0.0 | 3.0 | 0.00 | 0.01 | 0.01 | 81 | 1012.1 |
| 20260510045704 | 57 | 317 | 1.0 | 4.0 | 0.00 | 0.01 | 0.01 | 81 | 1012.1 |
| 20260510045604 | 57 | 320 | 1.0 | 4.0 | 0.00 | 0.01 | 0.01 | 81 | 1012.1 |
| 20260510045515 | 57 | 322 | 1.0 | 4.0 | 0.00 | 0.01 | 0.01 | 81 | 1012.2 |
| 20260510045404 | 57 | 324 | 2.0 | 4.0 | 0.00 | 0.01 | 0.01 | 82 | 1012.1 |
| 20260510045306 | 57 | 325 | 2.0 | 4.0 | 0.00 | 0.01 | 0.01 | 81 | 1012.1 |
| 20260510045104 | 57 | 328 | 2.0 | 4.0 | 0.00 | 0.01 | 0.01 | 81 | 1012.1 |
| 20260510044904 | 57 | 332 | 2.0 | 4.0 | 0.00 | 0.01 | 0.01 | 81 | 1012.1 |
| 20260510044804 | 57 | 335 | 2.0 | 4.0 | 0.00 | 0.01 | 0.01 | 81 | 1012.2 |
| 20260510044704 | 57 | 338 | 2.0 | 3.0 | 0.00 | 0.01 | 0.01 | 81 | 1012.2 |
| 20260510044604 | 57 | 339 | 2.0 | 3.0 | 0.00 | 0.01 | 0.01 | 80 | 1012.2 |
| 20260510044506 | 57 | 339 | 2.0 | 3.0 | 0.00 | 0.01 | 0.01 | 80 | 1012.2 |
| 20260510044404 | 57 | 339 | 2.0 | 3.0 | 0.00 | 0.01 | 0.01 | 80 | 1012.2 |
| 20260510044304 | 57 | 340 | 1.0 | 3.0 | 0.00 | 0.01 | 0.01 | 80 | 1012.1 |
| 20260510044214 | 57 | 342 | 1.0 | 3.0 | 0.00 | 0.01 | 0.01 | 80 | 1012.1 |
| 20260510044104 | 57 | 345 | 1.0 | 3.0 | 0.00 | 0.01 | 0.01 | 80 | 1012.1 |
| 20260510044004 | 57 | 349 | 1.0 | 4.0 | 0.00 | 0.01 | 0.01 | 80 | 1012.1 |
| 20260510043804 | 57 | 351 | 1.0 | 4.0 | 0.00 | 0.01 | 0.01 | 80 | 1012.1 |
| 20260510043704 | 57 | 352 | 2.0 | 5.0 | 0.00 | 0.01 | 0.01 | 80 | 1012.1 |
| 20260510043604 | 57 | 353 | 2.0 | 5.0 | 0.00 | 0.01 | 0.01 | 80 | 1012.1 |
| 20260510043506 | 57 | 352 | 2.0 | 5.0 | 0.00 | 0.01 | 0.01 | 80 | 1012.0 |
| 20260510043404 | 57 | 351 | 3.0 | 5.0 | 0.00 | 0.01 | 0.01 | 80 | 1012.1 |
| 20260510043304 | 57 | 350 | 3.0 | 5.0 | 0.00 | 0.01 | 0.01 | 80 | 1012.1 |
| 20260510043206 | 57 | 348 | 3.0 | 5.0 | 0.00 | 0.01 | 0.01 | 80 | 1012.0 |
| 20260510043105 | 57 | 346 | 3.0 | 5.0 | 0.00 | 0.01 | 0.01 | 80 | 1012.0 |
| 20260510043005 | 56 | 344 | 3.0 | 5.0 | 0.00 | 0.01 | 0.01 | 80 | 1012.0 |
| 20260510042914 | 56 | 343 | 3.0 | 5.0 | 0.00 | 0.01 | 0.01 | 80 | 1012.1 |
| 20260510042804 | 56 | 341 | 4.0 | 5.0 | 0.00 | 0.01 | 0.01 | 81 | 1012.0 |
| 20260510042704 | 56 | 339 | 4.0 | 5.0 | 0.00 | 0.01 | 0.01 | 81 | 1012.1 |
| 20260510042604 | 56 | 337 | 3.0 | 5.0 | 0.00 | 0.01 | 0.01 | 81 | 1012.1 |
| 20260510042504 | 56 | 336 | 3.0 | 5.0 | 0.00 | 0.01 | 0.01 | 81 | 1012.1 |
| 20260510042404 | 56 | 334 | 3.0 | 5.0 | 0.00 | 0.01 | 0.01 | 81 | 1012.1 |
| 20260510042306 | 56 | 332 | 3.0 | 5.0 | 0.00 | 0.01 | 0.01 | 81 | 1012.1 |
| 20260510042204 | 56 | 331 | 3.0 | 5.0 | 0.00 | 0.01 | 0.01 | 81 | 1012.1 |
| 20260510042104 | 56 | 330 | 2.0 | 5.0 | 0.00 | 0.01 | 0.01 | 81 | 1012.2 |
| 20260510042005 | 56 | 328 | 2.0 | 5.0 | 0.00 | 0.01 | 0.01 | 81 | 1012.1 |
| 20260510041907 | 56 | 329 | 3.0 | 6.0 | 0.00 | 0.01 | 0.01 | 81 | 1012.1 |
| 20260510041804 | 56 | 328 | 3.0 | 6.0 | 0.00 | 0.01 | 0.01 | 81 | 1012.0 |
| 20260510041704 | 56 | 325 | 3.0 | 6.0 | 0.00 | 0.01 | 0.01 | 81 | 1012.1 |
| 20260510041614 | 56 | 326 | 3.0 | 6.0 | 0.00 | 0.01 | 0.01 | 81 | 1012.0 |
| 20260510041505 | 57 | 328 | 3.0 | 6.0 | 0.00 | 0.01 | 0.01 | 81 | 1012.0 |
| 20260510041304 | 57 | 332 | 3.0 | 6.0 | 0.00 | 0.01 | 0.01 | 81 | 1012.1 |
| 20260510041204 | 57 | 333 | 3.0 | 6.0 | 0.00 | 0.01 | 0.01 | 81 | 1012.0 |
| 20260510041105 | 57 | 335 | 3.0 | 6.0 | 0.00 | 0.01 | 0.01 | 80 | 1012.1 |
| 20260510041004 | 57 | 339 | 2.0 | 6.0 | 0.00 | 0.01 | 0.01 | 80 | 1012.0 |
| 20260510040804 | 57 | 348 | 2.0 | 4.0 | 0.00 | 0.01 | 0.01 | 80 | 1011.9 |
| 20260510040607 | 57 | 355 | 2.0 | 3.0 | 0.00 | 0.01 | 0.01 | 79 | 1012.0 |
| 20260510040505 | 57 | 353 | 2.0 | 3.0 | 0.00 | 0.01 | 0.01 | 79 | 1011.9 |
| 20260510040404 | 57 | 351 | 2.0 | 5.0 | 0.00 | 0.01 | 0.01 | 79 | 1012.0 |
| 20260510040315 | 57 | 348 | 2.0 | 5.0 | 0.00 | 0.01 | 0.01 | 79 | 1012.0 |
| 20260510040104 | 57 | 343 | 3.0 | 5.0 | 0.00 | 0.01 | 0.01 | 79 | 1012.1 |
| 20260510040004 | 57 | 340 | 3.0 | 5.0 | 0.00 | 0.01 | 0.01 | 79 | 1011.9 |
| 20260510035904 | 57 | 336 | 3.0 | 5.0 | 0.00 | 0.01 | 0.01 | 79 | 1012.0 |
| 20260510035804 | 57 | 332 | 3.0 | 5.0 | 0.00 | 0.01 | 0.01 | 79 | 1011.9 |
| 20260510035704 | 57 | 329 | 3.0 | 5.0 | 0.00 | 0.01 | 0.01 | 80 | 1012.0 |
| 20260510035605 | 57 | 327 | 2.0 | 5.0 | 0.00 | 0.01 | 0.01 | 79 | 1012.0 |
| 20260510035405 | 57 | 321 | 2.0 | 4.0 | 0.00 | 0.01 | 0.01 | 79 | 1012.0 |
| 20260510035306 | 57 | 319 | 2.0 | 4.0 | 0.00 | 0.01 | 0.01 | 80 | 1012.0 |
| 20260510035204 | 57 | 315 | 1.0 | 4.0 | 0.00 | 0.01 | 0.01 | 80 | 1012.1 |
| 20260510035104 | 57 | 313 | 1.0 | 4.0 | 0.00 | 0.01 | 0.01 | 80 | 1012.0 |
| 20260510035008 | 57 | 313 | 1.0 | 4.0 | 0.00 | 0.01 | 0.01 | 80 | 1012.1 |
| 20260510034905 | 57 | 315 | 1.0 | 3.0 | 0.00 | 0.01 | 0.01 | 80 | 1012.1 |
| 20260510034716 | 57 | 317 | 1.0 | 3.0 | 0.01 | 0.01 | 0.01 | 79 | 1012.1 |
| 20260510034604 | 57 | 317 | 1.0 | 3.0 | 0.01 | 0.01 | 0.01 | 79 | 1012.1 |
| 20260510034505 | 57 | 317 | 1.0 | 3.0 | 0.01 | 0.01 | 0.01 | 79 | 1012.0 |
| 20260510034404 | 58 | 317 | 1.0 | 3.0 | 0.01 | 0.01 | 0.01 | 79 | 1012.1 |
| 20260510034304 | 58 | 317 | 1.0 | 3.0 | 0.01 | 0.01 | 0.01 | 78 | 1012.1 |
| 20260510034204 | 58 | 317 | 1.0 | 3.0 | 0.01 | 0.01 | 0.01 | 78 | 1012.2 |
| 20260510034104 | 58 | 317 | 1.0 | 3.0 | 0.01 | 0.01 | 0.01 | 78 | 1012.1 |
| 20260510034004 | 58 | 317 | 1.0 | 3.0 | 0.01 | 0.01 | 0.01 | 78 | 1012.1 |
| 20260510033904 | 58 | 317 | 1.0 | 3.0 | 0.01 | 0.01 | 0.01 | 78 | 1012.1 |
| 20260510033804 | 58 | 317 | 1.0 | 3.0 | 0.01 | 0.01 | 0.01 | 78 | 1012.1 |
| 20260510033604 | 58 | 317 | 1.0 | 2.0 | 0.01 | 0.01 | 0.01 | 77 | 1012.1 |
| 20260510033504 | 58 | 316 | 1.0 | 2.0 | 0.01 | 0.01 | 0.01 | 77 | 1012.2 |
| 20260510033305 | 58 | 314 | 1.0 | 4.0 | 0.01 | 0.01 | 0.01 | 78 | 1012.2 |
| 20260510033204 | 58 | 315 | 1.0 | 4.0 | 0.01 | 0.01 | 0.01 | 78 | 1012.2 |
| 20260510033104 | 58 | 316 | 2.0 | 4.0 | 0.01 | 0.01 | 0.01 | 78 | 1012.2 |
| 20260510033005 | 58 | 316 | 2.0 | 4.0 | 0.01 | 0.01 | 0.01 | 77 | 1012.2 |
| 20260510032904 | 58 | 317 | 2.0 | 4.0 | 0.01 | 0.01 | 0.01 | 77 | 1012.3 |
| 20260510032804 | 58 | 318 | 2.0 | 4.0 | 0.01 | 0.01 | 0.01 | 77 | 1012.2 |
| 20260510032704 | 58 | 318 | 2.0 | 5.0 | 0.01 | 0.01 | 0.01 | 77 | 1012.3 |
| 20260510032604 | 58 | 317 | 2.0 | 5.0 | 0.01 | 0.01 | 0.01 | 77 | 1012.2 |
| 20260510032504 | 58 | 316 | 2.0 | 5.0 | 0.01 | 0.01 | 0.01 | 77 | 1012.3 |
| 20260510032404 | 58 | 315 | 2.0 | 5.0 | 0.01 | 0.01 | 0.01 | 76 | 1012.3 |
| 20260510032306 | 58 | 317 | 2.0 | 5.0 | 0.01 | 0.01 | 0.01 | 76 | 1012.2 |
| 20260510032204 | 58 | 316 | 2.0 | 5.0 | 0.01 | 0.01 | 0.01 | 76 | 1012.3 |
| 20260510032004 | 58 | 316 | 2.0 | 5.0 | 0.01 | 0.01 | 0.01 | 76 | 1012.4 |
| 20260510031814 | 58 | 315 | 2.0 | 5.0 | 0.01 | 0.01 | 0.01 | 76 | 1012.3 |
| 20260510031704 | 58 | 312 | 1.0 | 4.0 | 0.01 | 0.01 | 0.01 | 76 | 1012.3 |
| 20260510031605 | 58 | 313 | 1.0 | 4.0 | 0.01 | 0.01 | 0.01 | 76 | 1012.4 |
| 20260510031504 | 58 | 317 | 1.0 | 4.0 | 0.01 | 0.01 | 0.01 | 76 | 1012.5 |
| 20260510031404 | 58 | 319 | 1.0 | 4.0 | 0.01 | 0.01 | 0.01 | 77 | 1012.4 |
| 20260510031304 | 58 | 321 | 1.0 | 4.0 | 0.01 | 0.01 | 0.01 | 77 | 1012.4 |
| 20260510031204 | 58 | 320 | 1.0 | 4.0 | 0.01 | 0.01 | 0.01 | 77 | 1012.5 |
| 20260510031104 | 58 | 321 | 1.0 | 4.0 | 0.01 | 0.01 | 0.01 | 77 | 1012.4 |
| 20260510031005 | 58 | 326 | 1.0 | 4.0 | 0.01 | 0.01 | 0.01 | 77 | 1012.5 |
| 20260510030704 | 58 | 114 | 1.0 | 3.0 | 0.01 | 0.01 | 0.01 | 76 | 1012.5 |
| 20260510030604 | 58 | 108 | 1.0 | 3.0 | 0.01 | 0.01 | 0.01 | 77 | 1012.4 |
| 20260510030515 | 58 | 100 | 1.0 | 3.0 | 0.01 | 0.01 | 0.01 | 77 | 1012.5 |
| 20260510030404 | 58 | 89 | 1.0 | 4.0 | 0.01 | 0.01 | 0.01 | 76 | 1012.5 |
| 20260510030305 | 58 | 63 | 1.0 | 4.0 | 0.01 | 0.01 | 0.01 | 77 | 1012.5 |
| 20260510030204 | 58 | 46 | 2.0 | 5.0 | 0.01 | 0.01 | 0.01 | 77 | 1012.5 |
| 20260510030104 | 58 | 36 | 2.0 | 5.0 | 0.01 | 0.01 | 0.01 | 76 | 1012.6 |
| 20260510025804 | 58 | 16 | 3.0 | 5.0 | 0.01 | 0.01 | 0.01 | 76 | 1012.6 |
| 20260510025705 | 58 | 13 | 3.0 | 5.0 | 0.01 | 0.01 | 0.01 | 75 | 1012.6 |
| 20260510025604 | 58 | 10 | 3.0 | 5.0 | 0.01 | 0.01 | 0.01 | 75 | 1012.6 |
| 20260510025306 | 58 | 5 | 4.0 | 5.0 | 0.01 | 0.01 | 0.01 | 74 | 1012.8 |
| 20260510025208 | 58 | 359 | 4.0 | 6.0 | 0.01 | 0.01 | 0.01 | 74 | 1012.7 |
| 20260510025104 | 58 | 356 | 4.0 | 6.0 | 0.01 | 0.01 | 0.01 | 74 | 1012.7 |
| 20260510025005 | 58 | 355 | 4.0 | 6.0 | 0.01 | 0.01 | 0.01 | 74 | 1012.7 |
| 20260510024804 | 58 | 351 | 3.0 | 6.0 | 0.00 | 0.00 | 0.00 | 74 | 1012.8 |
| 20260510024704 | 58 | 346 | 3.0 | 6.0 | 0.00 | 0.00 | 0.00 | 74 | 1012.7 |
| 20260510024604 | 58 | 344 | 3.0 | 6.0 | 0.00 | 0.00 | 0.00 | 74 | 1012.8 |
| 20260510024505 | 58 | 341 | 3.0 | 6.0 | 0.00 | 0.00 | 0.00 | 74 | 1012.9 |
| 20260510024404 | 58 | 339 | 2.0 | 6.0 | 0.00 | 0.00 | 0.00 | 73 | 1012.9 |
| 20260510024304 | 58 | 338 | 2.0 | 6.0 | 0.00 | 0.00 | 0.00 | 73 | 1012.8 |
| 20260510024206 | 58 | 336 | 2.0 | 6.0 | 0.00 | 0.00 | 0.00 | 73 | 1012.8 |
| 20260510023915 | 59 | 326 | 2.0 | 5.0 | 0.00 | 0.00 | 0.00 | 72 | 1012.9 |
| 20260510023804 | 59 | 328 | 2.0 | 4.0 | 0.00 | 0.00 | 0.00 | 72 | 1013.0 |
| 20260510023704 | 59 | 329 | 2.0 | 4.0 | 0.00 | 0.00 | 0.00 | 72 | 1012.9 |
| 20260510023605 | 59 | 331 | 2.0 | 4.0 | 0.00 | 0.00 | 0.00 | 72 | 1012.9 |
| 20260510023504 | 59 | 333 | 2.0 | 4.0 | 0.00 | 0.00 | 0.00 | 72 | 1012.9 |
| 20260510023404 | 59 | 333 | 3.0 | 4.0 | 0.00 | 0.00 | 0.00 | 72 | 1012.9 |
| 20260510023304 | 58 | 335 | 3.0 | 4.0 | 0.00 | 0.00 | 0.00 | 72 | 1012.9 |
| 20260510023204 | 58 | 336 | 3.0 | 6.0 | 0.00 | 0.00 | 0.00 | 72 | 1013.0 |
| 20260510023104 | 58 | 337 | 3.0 | 6.0 | 0.00 | 0.00 | 0.00 | 72 | 1012.9 |
| 20260510023005 | 58 | 339 | 3.0 | 6.0 | 0.00 | 0.00 | 0.00 | 72 | 1012.8 |
| 20260510022907 | 58 | 340 | 3.0 | 8.0 | 0.00 | 0.00 | 0.00 | 72 | 1012.9 |
| 20260510022804 | 59 | 341 | 4.0 | 10.0 | 0.00 | 0.00 | 0.00 | 72 | 1012.9 |
| 20260510022704 | 59 | 340 | 4.0 | 10.0 | 0.00 | 0.00 | 0.00 | 72 | 1012.8 |
| 20260510022614 | 59 | 341 | 5.0 | 10.0 | 0.00 | 0.00 | 0.00 | 72 | 1013.0 |
| 20260510022505 | 59 | 340 | 5.0 | 10.0 | 0.00 | 0.00 | 0.00 | 71 | 1012.9 |
| 20260510022404 | 59 | 340 | 5.0 | 10.0 | 0.00 | 0.00 | 0.00 | 71 | 1012.9 |
| 20260510022306 | 59 | 340 | 6.0 | 10.0 | 0.00 | 0.00 | 0.00 | 71 | 1012.9 |
| 20260510022204 | 59 | 340 | 5.0 | 10.0 | 0.00 | 0.00 | 0.00 | 71 | 1012.8 |
| 20260510022104 | 59 | 340 | 5.0 | 10.0 | 0.00 | 0.00 | 0.00 | 71 | 1012.8 |
| 20260510022005 | 59 | 340 | 5.0 | 10.0 | 0.00 | 0.00 | 0.00 | 72 | 1012.7 |
| 20260510021803 | 59 | 343 | 4.0 | 9.0 | 0.00 | 0.00 | 0.00 | 72 | 1012.8 |
| 20260510021704 | 59 | 346 | 3.0 | 9.0 | 0.00 | 0.00 | 0.00 | 72 | 1012.7 |
| 20260510021605 | 59 | 346 | 3.0 | 9.0 | 0.00 | 0.00 | 0.00 | 71 | 1012.7 |
| 20260510021504 | 59 | 351 | 2.0 | 7.0 | 0.00 | 0.00 | 0.00 | 71 | 1012.8 |
| 20260510021314 | 59 | 9 | 1.0 | 4.0 | 0.00 | 0.00 | 0.00 | 70 | 1012.7 |
| 20260510021204 | 59 | 30 | 1.0 | 3.0 | 0.00 | 0.00 | 0.00 | 70 | 1012.6 |
| 20260510021104 | 59 | 53 | 1.0 | 3.0 | 0.00 | 0.00 | 0.00 | 70 | 1012.6 |
| 20260510020904 | 59 | 183 | 1.0 | 3.0 | 0.00 | 0.00 | 0.00 | 71 | 1012.6 |
| 20260510020805 | 59 | 194 | 1.0 | 3.0 | 0.00 | 0.00 | 0.00 | 71 | 1012.7 |
| 20260510020704 | 59 | 199 | 1.0 | 3.0 | 0.00 | 0.00 | 0.00 | 71 | 1012.5 |
| 20260510020604 | 59 | 198 | 1.0 | 3.0 | 0.00 | 0.00 | 0.00 | 71 | 1012.5 |
| 20260510020505 | 59 | 208 | 1.0 | 3.0 | 0.00 | 0.00 | 0.00 | 71 | 1012.7 |
| 20260510020405 | 58 | 220 | 1.0 | 3.0 | 0.00 | 0.00 | 0.00 | 72 | 1012.6 |
| 20260510020308 | 58 | 228 | 1.0 | 3.0 | 0.00 | 0.00 | 0.00 | 72 | 1012.6 |
| 20260510020205 | 58 | 236 | 2.0 | 3.0 | 0.00 | 0.00 | 0.00 | 72 | 1012.6 |
| 20260510020104 | 58 | 249 | 2.0 | 4.0 | 0.00 | 0.00 | 0.00 | 72 | 1012.7 |
| 20260510020014 | 58 | 259 | 2.0 | 4.0 | 0.00 | 0.00 | 0.00 | 73 | 1012.7 |
| 20260510015904 | 58 | 281 | 2.0 | 4.0 | 0.00 | 0.00 | 0.00 | 73 | 1012.6 |
| 20260510015804 | 58 | 295 | 2.0 | 4.0 | 0.00 | 0.00 | 0.00 | 73 | 1012.6 |
| 20260510015704 | 58 | 305 | 2.0 | 4.0 | 0.00 | 0.00 | 0.00 | 73 | 1012.6 |
| 20260510015604 | 58 | 310 | 2.0 | 5.0 | 0.00 | 0.00 | 0.00 | 73 | 1012.7 |
| 20260510015505 | 58 | 317 | 2.0 | 5.0 | 0.00 | 0.00 | 0.00 | 73 | 1012.7 |
| 20260510015404 | 58 | 323 | 2.0 | 5.0 | 0.00 | 0.00 | 0.00 | 73 | 1012.8 |
| 20260510015306 | 58 | 326 | 2.0 | 5.0 | 0.00 | 0.00 | 0.00 | 73 | 1012.7 |
| 20260510015204 | 58 | 328 | 2.0 | 5.0 | 0.00 | 0.00 | 0.00 | 72 | 1012.8 |
| 20260510015104 | 58 | 330 | 2.0 | 5.0 | 0.00 | 0.00 | 0.00 | 72 | 1012.8 |
| 20260510015006 | 58 | 333 | 2.0 | 5.0 | 0.00 | 0.00 | 0.00 | 72 | 1012.8 |
| 20260510014904 | 59 | 337 | 2.0 | 5.0 | 0.00 | 0.00 | 0.00 | 72 | 1012.8 |
| 20260510014805 | 59 | 338 | 2.0 | 5.0 | 0.00 | 0.00 | 0.00 | 71 | 1012.8 |
| 20260510014713 | 59 | 342 | 2.0 | 5.0 | 0.00 | 0.00 | 0.00 | 71 | 1012.8 |
| 20260510014604 | 59 | 351 | 1.0 | 5.0 | 0.00 | 0.00 | 0.00 | 71 | 1012.8 |
| 20260510014504 | 59 | 354 | 1.0 | 5.0 | 0.00 | 0.00 | 0.00 | 70 | 1012.8 |
| 20260510014404 | 59 | 359 | 1.0 | 3.0 | 0.00 | 0.00 | 0.00 | 70 | 1012.8 |
| 20260510014204 | 59 | 8 | 1.0 | 2.0 | 0.00 | 0.00 | 0.00 | 70 | 1012.9 |
| 20260510014104 | 59 | 12 | 1.0 | 2.0 | 0.00 | 0.00 | 0.00 | 70 | 1012.8 |
| 20260510014004 | 59 | 17 | 1.0 | 2.0 | 0.00 | 0.00 | 0.00 | 70 | 1012.8 |
| 20260510013904 | 59 | 23 | 0.0 | 2.0 | 0.00 | 0.00 | 0.00 | 70 | 1012.9 |
| 20260510013604 | 59 | 51 | 0.0 | 2.0 | 0.00 | 0.00 | 0.00 | 70 | 1012.9 |
| 20260510013504 | 59 | 51 | 0.0 | 2.0 | 0.00 | 0.00 | 0.00 | 70 | 1012.8 |
| 20260510013415 | 59 | 50 | 0.0 | 2.0 | 0.00 | 0.00 | 0.00 | 69 | 1012.9 |
| 20260510013304 | 59 | 48 | 0.0 | 2.0 | 0.00 | 0.00 | 0.00 | 69 | 1012.9 |
| 20260510013204 | 59 | 45 | 0.0 | 2.0 | 0.00 | 0.00 | 0.00 | 69 | 1012.9 |
| 20260510013106 | 59 | 39 | 0.0 | 2.0 | 0.00 | 0.00 | 0.00 | 69 | 1012.9 |
| 20260510013004 | 60 | 34 | 0.0 | 2.0 | 0.00 | 0.00 | 0.00 | 69 | 1012.9 |
| 20260510012904 | 59 | 22 | 0.0 | 2.0 | 0.00 | 0.00 | 0.00 | 69 | 1012.9 |
| 20260510012804 | 59 | 22 | 0.0 | 2.0 | 0.00 | 0.00 | 0.00 | 69 | 1012.7 |
| 20260510012704 | 60 | 9 | 0.0 | 2.0 | 0.00 | 0.00 | 0.00 | 69 | 1012.8 |
| 20260510012605 | 60 | 12 | 0.0 | 2.0 | 0.00 | 0.00 | 0.00 | 69 | 1012.8 |
| 20260510012406 | 60 | 43 | 0.0 | 2.0 | 0.00 | 0.00 | 0.00 | 69 | 1012.8 |
| 20260510012306 | 60 | 51 | 0.0 | 2.0 | 0.00 | 0.00 | 0.00 | 69 | 1012.8 |
| 20260510012004 | 60 | 73 | 1.0 | 2.0 | 0.00 | 0.00 | 0.00 | 69 | 1012.7 |
| 20260510011805 | 60 | 91 | 1.0 | 2.0 | 0.00 | 0.00 | 0.00 | 69 | 1012.8 |
| 20260510011704 | 60 | 95 | 1.0 | 2.0 | 0.00 | 0.00 | 0.00 | 69 | 1012.7 |
| 20260510011604 | 60 | 93 | 1.0 | 2.0 | 0.00 | 0.00 | 0.00 | 69 | 1012.7 |
| 20260510011504 | 60 | 100 | 1.0 | 2.0 | 0.00 | 0.00 | 0.00 | 69 | 1012.7 |
| 20260510011304 | 60 | 112 | 1.0 | 2.0 | 0.00 | 0.00 | 0.00 | 69 | 1012.8 |
| 20260510011107 | 60 | 128 | 1.0 | 2.0 | 0.00 | 0.00 | 0.00 | 70 | 1012.8 |
| 20260510011004 | 60 | 122 | 1.0 | 2.0 | 0.00 | 0.00 | 0.00 | 70 | 1012.8 |
| 20260510010904 | 60 | 106 | 1.0 | 2.0 | 0.00 | 0.00 | 0.00 | 70 | 1012.8 |
| 20260510010815 | 59 | 100 | 1.0 | 2.0 | 0.00 | 0.00 | 0.00 | 70 | 1012.8 |
| 20260510010604 | 59 | 88 | 1.0 | 2.0 | 0.00 | 0.00 | 0.00 | 70 | 1012.8 |
| 20260510010504 | 59 | 86 | 1.0 | 2.0 | 0.00 | 0.00 | 0.00 | 71 | 1012.8 |
| 20260510010404 | 59 | 68 | 1.0 | 2.0 | 0.00 | 0.00 | 0.00 | 71 | 1012.8 |
| 20260510010305 | 59 | 68 | 1.0 | 2.0 | 0.00 | 0.00 | 0.00 | 71 | 1012.7 |
| 20260510010204 | 59 | 72 | 1.0 | 2.0 | 0.00 | 0.00 | 0.00 | 71 | 1012.7 |
| 20260510010004 | 59 | 121 | 1.0 | 2.0 | 0.00 | 0.00 | 0.00 | 71 | 1012.8 |
| 20260510005815 | 59 | 142 | 1.0 | 2.0 | 0.00 | 0.00 | 0.00 | 71 | 1013.0 |
| 20260510005704 | 59 | 164 | 1.0 | 2.0 | 0.00 | 0.00 | 0.00 | 71 | 1012.9 |
| 20260510005604 | 59 | 182 | 0.0 | 2.0 | 0.00 | 0.00 | 0.00 | 71 | 1012.9 |
| 20260510005504 | 59 | 199 | 0.0 | 2.0 | 0.00 | 0.00 | 0.00 | 71 | 1012.9 |
| 20260510005404 | 59 | 198 | 0.0 | 2.0 | 0.00 | 0.00 | 0.00 | 71 | 1013.0 |
| 20260510005306 | 59 | 197 | 1.0 | 2.0 | 0.00 | 0.00 | 0.00 | 71 | 1012.9 |
| 20260510005204 | 59 | 196 | 1.0 | 2.0 | 0.00 | 0.00 | 0.00 | 71 | 1013.0 |
| 20260510005004 | 59 | 195 | 1.0 | 3.0 | 0.00 | 0.00 | 0.00 | 72 | 1013.0 |
| 20260510004904 | 59 | 198 | 1.0 | 3.0 | 0.00 | 0.00 | 0.00 | 72 | 1013.1 |
| 20260510004806 | 59 | 201 | 1.0 | 3.0 | 0.00 | 0.00 | 0.00 | 72 | 1013.0 |
| 20260510004704 | 59 | 205 | 1.0 | 3.0 | 0.00 | 0.00 | 0.00 | 72 | 1013.1 |
| 20260510004605 | 59 | 207 | 1.0 | 3.0 | 0.00 | 0.00 | 0.00 | 73 | 1013.0 |
| 20260510004513 | 59 | 208 | 1.0 | 3.0 | 0.00 | 0.00 | 0.00 | 72 | 1013.1 |
| 20260510004304 | 58 | 213 | 1.0 | 3.0 | 0.00 | 0.00 | 0.00 | 72 | 1013.3 |
| 20260510004204 | 58 | 234 | 1.0 | 4.0 | 0.00 | 0.00 | 0.00 | 72 | 1013.3 |
| 20260510004105 | 58 | 272 | 1.0 | 4.0 | 0.00 | 0.00 | 0.00 | 73 | 1013.3 |
| 20260510003904 | 58 | 311 | 1.0 | 4.0 | 0.00 | 0.00 | 0.00 | 73 | 1013.3 |
| 20260510003804 | 58 | 324 | 1.0 | 4.0 | 0.00 | 0.00 | 0.00 | 73 | 1013.4 |
| 20260510003604 | 58 | 336 | 2.0 | 4.0 | 0.00 | 0.00 | 0.00 | 73 | 1013.4 |
| 20260510003504 | 58 | 332 | 2.0 | 4.0 | 0.00 | 0.00 | 0.00 | 73 | 1013.3 |
| 20260510003404 | 58 | 332 | 2.0 | 4.0 | 0.00 | 0.00 | 0.00 | 73 | 1013.4 |
| 20260510003305 | 58 | 330 | 2.0 | 4.0 | 0.00 | 0.00 | 0.00 | 73 | 1013.3 |
| 20260510003208 | 58 | 325 | 2.0 | 4.0 | 0.00 | 0.00 | 0.00 | 73 | 1013.4 |
| 20260510003104 | 58 | 323 | 1.0 | 4.0 | 0.00 | 0.00 | 0.00 | 73 | 1013.5 |
| 20260510003004 | 58 | 320 | 1.0 | 4.0 | 0.00 | 0.00 | 0.00 | 73 | 1013.5 |
| 20260510002915 | 58 | 314 | 1.0 | 4.0 | 0.00 | 0.00 | 0.00 | 73 | 1013.5 |
| 20260510002704 | 58 | 290 | 1.0 | 4.0 | 0.00 | 0.00 | 0.00 | 73 | 1013.5 |
| 20260510002604 | 58 | 273 | 1.0 | 3.0 | 0.00 | 0.00 | 0.00 | 73 | 1013.6 |
| 20260510002504 | 58 | 266 | 1.0 | 3.0 | 0.00 | 0.00 | 0.00 | 73 | 1013.6 |
| 20260510002404 | 58 | 268 | 1.0 | 3.0 | 0.00 | 0.00 | 0.00 | 73 | 1013.6 |
| 20260510002306 | 58 | 269 | 1.0 | 3.0 | 0.00 | 0.00 | 0.00 | 72 | 1013.6 |
| 20260510002203 | 58 | 270 | 1.0 | 3.0 | 0.00 | 0.00 | 0.00 | 72 | 1013.5 |
| 20260510002104 | 58 | 270 | 1.0 | 3.0 | 0.00 | 0.00 | 0.00 | 73 | 1013.5 |
| 20260510001804 | 59 | 276 | 0.0 | 3.0 | 0.00 | 0.00 | 0.00 | 72 | 1013.5 |
| 20260510001613 | 59 | 282 | 1.0 | 3.0 | 0.00 | 0.00 | 0.00 | 72 | 1013.6 |
| 20260510001504 | 59 | 287 | 1.0 | 2.0 | 0.00 | 0.00 | 0.00 | 73 | 1013.6 |
| 20260510001404 | 59 | 287 | 1.0 | 2.0 | 0.00 | 0.00 | 0.00 | 73 | 1013.5 |
| 20260510001304 | 59 | 287 | 1.0 | 2.0 | 0.00 | 0.00 | 0.00 | 72 | 1013.5 |
| 20260510001204 | 59 | 288 | 0.0 | 2.0 | 0.00 | 0.00 | 0.00 | 72 | 1013.5 |
| 20260510001105 | 59 | 288 | 1.0 | 2.0 | 0.00 | 0.00 | 0.00 | 72 | 1013.6 |
| 20260510001005 | 59 | 288 | 1.0 | 2.0 | 0.00 | 0.00 | 0.00 | 72 | 1013.6 |
| 20260510000904 | 59 | 290 | 1.0 | 2.0 | 0.00 | 0.00 | 0.00 | 72 | 1013.6 |
| 20260510000804 | 59 | 291 | 1.0 | 2.0 | 0.00 | 0.00 | 0.00 | 72 | 1013.6 |
| 20260510000705 | 59 | 294 | 0.0 | 2.0 | 0.00 | 0.00 | 0.00 | 72 | 1013.6 |
| 20260510000606 | 59 | 298 | 0.0 | 2.0 | 0.00 | 0.00 | 0.00 | 72 | 1013.6 |
| 20260510000405 | 59 | 302 | 0.0 | 2.0 | 0.00 | 0.00 | 0.00 | 71 | 1013.6 |
| 20260510000315 | 59 | 300 | 0.0 | 2.0 | 0.00 | 0.00 | 0.00 | 71 | 1013.6 |
| 20260510000204 | 59 | 300 | 0.0 | 2.0 | 0.00 | 0.00 | 0.00 | 71 | 1013.5 |
| 20260510000105 | 59 | 299 | 1.0 | 2.0 | 0.00 | 0.00 | 0.00 | 72 | 1013.6 |
| 20260510000004 | 59 | 298 | 1.0 | 2.0 | 0.00 | 0.00 | 0.00 | 71 | 1013.5 |
| 20260509235904 | 59 | 298 | 0.0 | 2.0 | 0.00 | 0.00 | 0.00 | 72 | 1013.6 |
| 20260509235804 | 59 | 298 | 0.0 | 2.0 | 0.00 | 0.00 | 0.00 | 72 | 1013.5 |
| 20260509235705 | 59 | 297 | 0.0 | 2.0 | 0.00 | 0.00 | 0.00 | 72 | 1013.5 |
| 20260509235606 | 59 | 295 | 0.0 | 2.0 | 0.00 | 0.00 | 0.00 | 72 | 1013.5 |
| 20260509235505 | 59 | 292 | 0.0 | 2.0 | 0.00 | 0.00 | 0.00 | 72 | 1013.5 |
| 20260509235313 | 59 | 292 | 0.0 | 1.0 | 0.00 | 0.00 | 0.00 | 72 | 1013.6 |
| 20260509235203 | 59 | 291 | 0.0 | 2.0 | 0.00 | 0.00 | 0.00 | 72 | 1013.5 |
| 20260509235104 | 59 | 285 | 0.0 | 2.0 | 0.00 | 0.00 | 0.00 | 72 | 1013.6 |
| 20260509235004 | 59 | 275 | 0.0 | 3.0 | 0.00 | 0.00 | 0.00 | 71 | 1013.5 |
| 20260509234904 | 59 | 270 | 0.0 | 3.0 | 0.00 | 0.00 | 0.00 | 72 | 1013.6 |
| 20260509234804 | 59 | 269 | 0.0 | 3.0 | 0.00 | 0.00 | 0.00 | 72 | 1013.6 |
| 20260509234505 | 59 | 260 | 1.0 | 3.0 | 0.00 | 0.00 | 0.00 | 72 | 1013.7 |
| 20260509234404 | 59 | 256 | 1.0 | 3.0 | 0.00 | 0.00 | 0.00 | 72 | 1013.5 |
| 20260509234204 | 58 | 245 | 0.0 | 3.0 | 0.00 | 0.00 | 0.00 | 72 | 1013.6 |
| 20260509234104 | 59 | 241 | 0.0 | 3.0 | 0.00 | 0.00 | 0.00 | 73 | 1013.7 |
| 20260509234004 | 59 | 236 | 1.0 | 3.0 | 0.00 | 0.00 | 0.00 | 73 | 1013.6 |
| 20260509233904 | 59 | 233 | 1.0 | 4.0 | 0.00 | 0.00 | 0.00 | 72 | 1013.6 |
| 20260509233804 | 58 | 227 | 1.0 | 5.0 | 0.00 | 0.00 | 0.00 | 72 | 1013.7 |
| 20260509233704 | 58 | 220 | 2.0 | 6.0 | 0.00 | 0.00 | 0.00 | 72 | 1013.6 |
| 20260509233604 | 59 | 218 | 2.0 | 6.0 | 0.00 | 0.00 | 0.00 | 73 | 1013.6 |
| 20260509233307 | 58 | 217 | 3.0 | 6.0 | 0.00 | 0.00 | 0.00 | 72 | 1013.7 |
| 20260509233204 | 58 | 218 | 4.0 | 6.0 | 0.00 | 0.00 | 0.00 | 72 | 1013.7 |
| 20260509233104 | 58 | 217 | 4.0 | 6.0 | 0.00 | 0.00 | 0.00 | 72 | 1013.7 |
| 20260509233015 | 58 | 215 | 4.0 | 6.0 | 0.00 | 0.00 | 0.00 | 72 | 1013.7 |
| 20260509232904 | 58 | 213 | 4.0 | 6.0 | 0.00 | 0.00 | 0.00 | 72 | 1013.6 |
| 20260509232804 | 58 | 212 | 3.0 | 6.0 | 0.00 | 0.00 | 0.00 | 72 | 1013.6 |
| 20260509232704 | 59 | 212 | 3.0 | 6.0 | 0.00 | 0.00 | 0.00 | 72 | 1013.7 |
| 20260509232605 | 59 | 211 | 3.0 | 6.0 | 0.00 | 0.00 | 0.00 | 71 | 1013.7 |
| 20260509232404 | 59 | 206 | 2.0 | 5.0 | 0.00 | 0.00 | 0.00 | 71 | 1013.7 |
| 20260509232307 | 59 | 204 | 2.0 | 3.0 | 0.00 | 0.00 | 0.00 | 71 | 1013.7 |
| 20260509232204 | 59 | 205 | 2.0 | 3.0 | 0.00 | 0.00 | 0.00 | 71 | 1013.7 |
| 20260509232104 | 59 | 204 | 2.0 | 3.0 | 0.00 | 0.00 | 0.00 | 71 | 1013.8 |
| 20260509231904 | 59 | 206 | 2.0 | 3.0 | 0.00 | 0.00 | 0.00 | 71 | 1013.7 |
| 20260509231804 | 59 | 209 | 2.0 | 3.0 | 0.00 | 0.00 | 0.00 | 71 | 1013.7 |
| 20260509231704 | 59 | 214 | 2.0 | 3.0 | 0.00 | 0.00 | 0.00 | 72 | 1013.7 |
| 20260509231604 | 59 | 218 | 2.0 | 3.0 | 0.00 | 0.00 | 0.00 | 72 | 1013.7 |
| 20260509231404 | 59 | 224 | 2.0 | 3.0 | 0.00 | 0.00 | 0.00 | 71 | 1013.7 |
| 20260509231307 | 59 | 226 | 1.0 | 3.0 | 0.00 | 0.00 | 0.00 | 71 | 1013.7 |
| 20260509231204 | 59 | 228 | 1.0 | 3.0 | 0.00 | 0.00 | 0.00 | 71 | 1013.7 |
| 20260509231104 | 59 | 238 | 1.0 | 3.0 | 0.00 | 0.00 | 0.00 | 71 | 1013.7 |
| 20260509231015 | 59 | 249 | 1.0 | 3.0 | 0.00 | 0.00 | 0.00 | 71 | 1013.7 |
| 20260509230804 | 60 | 287 | 1.0 | 2.0 | 0.00 | 0.00 | 0.00 | 70 | 1013.7 |
| 20260509230704 | 60 | 283 | 1.0 | 3.0 | 0.00 | 0.00 | 0.00 | 70 | 1013.7 |
| 20260509230604 | 60 | 270 | 1.0 | 3.0 | 0.00 | 0.00 | 0.00 | 70 | 1013.6 |
| 20260509230504 | 60 | 261 | 1.0 | 3.0 | 0.00 | 0.00 | 0.00 | 70 | 1013.6 |
| 20260509230405 | 60 | 257 | 1.0 | 3.0 | 0.00 | 0.00 | 0.00 | 70 | 1013.7 |
| 20260509230306 | 60 | 254 | 1.0 | 3.0 | 0.00 | 0.00 | 0.00 | 70 | 1013.6 |
| 20260509230204 | 60 | 246 | 1.0 | 3.0 | 0.00 | 0.00 | 0.00 | 70 | 1013.7 |
| 20260509230104 | 59 | 238 | 1.0 | 4.0 | 0.00 | 0.00 | 0.00 | 71 | 1013.7 |
| 20260509230015 | 59 | 235 | 2.0 | 4.0 | 0.00 | 0.00 | 0.00 | 71 | 1013.7 |
| 20260509225905 | 59 | 229 | 2.0 | 4.0 | 0.00 | 0.00 | 0.00 | 71 | 1013.6 |
| 20260509225704 | 59 | 228 | 2.0 | 5.0 | 0.00 | 0.00 | 0.00 | 71 | 1013.8 |
| 20260509225605 | 59 | 228 | 2.0 | 5.0 | 0.00 | 0.00 | 0.00 | 71 | 1013.7 |
| 20260509225504 | 59 | 230 | 2.0 | 5.0 | 0.00 | 0.00 | 0.00 | 70 | 1013.7 |
| 20260509225404 | 59 | 230 | 2.0 | 5.0 | 0.00 | 0.00 | 0.00 | 70 | 1013.7 |
| 20260509225306 | 59 | 231 | 2.0 | 5.0 | 0.00 | 0.00 | 0.00 | 70 | 1013.6 |
| 20260509225204 | 59 | 231 | 2.0 | 5.0 | 0.00 | 0.00 | 0.00 | 70 | 1013.6 |
| 20260509225104 | 59 | 232 | 2.0 | 5.0 | 0.00 | 0.00 | 0.00 | 70 | 1013.6 |
| 20260509225013 | 59 | 234 | 2.0 | 5.0 | 0.00 | 0.00 | 0.00 | 70 | 1013.6 |
| 20260509224904 | 60 | 237 | 1.0 | 5.0 | 0.00 | 0.00 | 0.00 | 69 | 1013.6 |
| 20260509224604 | 60 | 253 | 0.0 | 3.0 | 0.00 | 0.00 | 0.00 | 69 | 1013.6 |
| 20260509224504 | 60 | 247 | 0.0 | 2.0 | 0.00 | 0.00 | 0.00 | 69 | 1013.6 |
| 20260509224404 | 60 | 245 | 0.0 | 2.0 | 0.00 | 0.00 | 0.00 | 69 | 1013.6 |
| 20260509224205 | 60 | 243 | 0.0 | 2.0 | 0.00 | 0.00 | 0.00 | 69 | 1013.6 |
| 20260509224007 | 60 | 232 | 1.0 | 3.0 | 0.00 | 0.00 | 0.00 | 68 | 1013.6 |
| 20260509223904 | 60 | 228 | 1.0 | 3.0 | 0.00 | 0.00 | 0.00 | 68 | 1013.6 |
| 20260509223804 | 60 | 231 | 1.0 | 3.0 | 0.00 | 0.00 | 0.00 | 68 | 1013.7 |
| 20260509223604 | 60 | 234 | 1.0 | 4.0 | 0.00 | 0.00 | 0.00 | 68 | 1013.6 |
| 20260509223404 | 60 | 231 | 2.0 | 5.0 | 0.00 | 0.00 | 0.00 | 68 | 1013.5 |
| 20260509223204 | 60 | 231 | 2.0 | 5.0 | 0.00 | 0.00 | 0.00 | 69 | 1013.6 |
| 20260509223104 | 60 | 233 | 3.0 | 5.0 | 0.00 | 0.00 | 0.00 | 69 | 1013.6 |
| 20260509223004 | 60 | 235 | 3.0 | 5.0 | 0.00 | 0.00 | 0.00 | 69 | 1013.6 |
| 20260509222905 | 60 | 235 | 3.0 | 5.0 | 0.00 | 0.00 | 0.00 | 70 | 1013.6 |
| 20260509222706 | 60 | 234 | 4.0 | 5.0 | 0.00 | 0.00 | 0.00 | 70 | 1013.7 |
| 20260509222604 | 60 | 235 | 4.0 | 5.0 | 0.00 | 0.00 | 0.00 | 69 | 1013.5 |
| 20260509222504 | 60 | 235 | 4.0 | 5.0 | 0.00 | 0.00 | 0.00 | 69 | 1013.6 |
| 20260509222414 | 60 | 234 | 4.0 | 5.0 | 0.00 | 0.00 | 0.00 | 70 | 1013.6 |
| 20260509222307 | 60 | 233 | 4.0 | 5.0 | 0.00 | 0.00 | 0.00 | 70 | 1013.6 |
| 20260509222204 | 60 | 231 | 3.0 | 5.0 | 0.00 | 0.00 | 0.00 | 70 | 1013.6 |
| 20260509222104 | 60 | 230 | 3.0 | 5.0 | 0.00 | 0.00 | 0.00 | 70 | 1013.7 |
| 20260509222004 | 60 | 228 | 3.0 | 5.0 | 0.00 | 0.00 | 0.00 | 70 | 1013.6 |
| 20260509221904 | 60 | 229 | 3.0 | 5.0 | 0.00 | 0.00 | 0.00 | 70 | 1013.6 |
| 20260509221804 | 60 | 229 | 3.0 | 5.0 | 0.00 | 0.00 | 0.00 | 70 | 1013.6 |
| 20260509221704 | 60 | 229 | 3.0 | 5.0 | 0.00 | 0.00 | 0.00 | 70 | 1013.6 |
| 20260509221604 | 60 | 227 | 3.0 | 5.0 | 0.00 | 0.00 | 0.00 | 69 | 1013.6 |
| 20260509221504 | 60 | 226 | 3.0 | 5.0 | 0.00 | 0.00 | 0.00 | 69 | 1013.7 |
| 20260509221408 | 60 | 227 | 3.0 | 5.0 | 0.00 | 0.00 | 0.00 | 69 | 1013.6 |
| 20260509221304 | 60 | 230 | 2.0 | 4.0 | 0.00 | 0.00 | 0.00 | 69 | 1013.6 |
| 20260509221204 | 60 | 233 | 2.0 | 4.0 | 0.00 | 0.00 | 0.00 | 69 | 1013.5 |
| 20260509221115 | 60 | 235 | 2.0 | 4.0 | 0.00 | 0.00 | 0.00 | 69 | 1013.5 |
| 20260509220904 | 61 | 235 | 2.0 | 4.0 | 0.00 | 0.00 | 0.00 | 69 | 1013.5 |
| 20260509220804 | 61 | 233 | 2.0 | 4.0 | 0.00 | 0.00 | 0.00 | 69 | 1013.5 |
| 20260509220704 | 61 | 233 | 2.0 | 4.0 | 0.00 | 0.00 | 0.00 | 69 | 1013.5 |
| 20260509220604 | 61 | 234 | 2.0 | 4.0 | 0.00 | 0.00 | 0.00 | 69 | 1013.5 |
| 20260509220504 | 61 | 233 | 2.0 | 4.0 | 0.00 | 0.00 | 0.00 | 69 | 1013.5 |
| 20260509220304 | 61 | 232 | 2.0 | 4.0 | 0.00 | 0.00 | 0.00 | 69 | 1013.5 |
| 20260509220204 | 61 | 229 | 2.0 | 4.0 | 0.00 | 0.00 | 0.00 | 69 | 1013.4 |
| 20260509220114 | 61 | 228 | 2.0 | 4.0 | 0.00 | 0.00 | 0.00 | 69 | 1013.5 |
| 20260509220006 | 61 | 224 | 2.0 | 4.0 | 0.00 | 0.00 | 0.00 | 69 | 1013.5 |
| 20260509215904 | 61 | 221 | 2.0 | 4.0 | 0.00 | 0.00 | 0.00 | 69 | 1013.5 |
| 20260509215804 | 61 | 218 | 2.0 | 4.0 | 0.00 | 0.00 | 0.00 | 69 | 1013.5 |
| 20260509215704 | 61 | 213 | 2.0 | 4.0 | 0.00 | 0.00 | 0.00 | 68 | 1013.5 |
| 20260509215505 | 61 | 207 | 2.0 | 5.0 | 0.00 | 0.00 | 0.00 | 68 | 1013.4 |
| 20260509215405 | 61 | 205 | 2.0 | 5.0 | 0.00 | 0.00 | 0.00 | 68 | 1013.4 |
| 20260509215306 | 61 | 203 | 3.0 | 5.0 | 0.00 | 0.00 | 0.00 | 68 | 1013.4 |
| 20260509215204 | 61 | 202 | 3.0 | 5.0 | 0.00 | 0.00 | 0.00 | 68 | 1013.5 |
| 20260509215113 | 61 | 200 | 3.0 | 5.0 | 0.00 | 0.00 | 0.00 | 68 | 1013.4 |
| 20260509215004 | 61 | 200 | 3.0 | 5.0 | 0.00 | 0.00 | 0.00 | 67 | 1013.5 |
| 20260509214904 | 61 | 201 | 3.0 | 5.0 | 0.00 | 0.00 | 0.00 | 67 | 1013.5 |
| 20260509214804 | 61 | 200 | 2.0 | 5.0 | 0.00 | 0.00 | 0.00 | 67 | 1013.5 |
| 20260509214704 | 61 | 201 | 2.0 | 5.0 | 0.00 | 0.00 | 0.00 | 68 | 1013.5 |
| 20260509214604 | 61 | 202 | 2.0 | 4.0 | 0.00 | 0.00 | 0.00 | 68 | 1013.5 |
| 20260509214504 | 61 | 205 | 2.0 | 4.0 | 0.00 | 0.00 | 0.00 | 68 | 1013.5 |
| 20260509214404 | 61 | 210 | 1.0 | 4.0 | 0.00 | 0.00 | 0.00 | 68 | 1013.4 |
| 20260509214304 | 61 | 215 | 1.0 | 4.0 | 0.00 | 0.00 | 0.00 | 68 | 1013.5 |
| 20260509214204 | 61 | 219 | 2.0 | 5.0 | 0.00 | 0.00 | 0.00 | 68 | 1013.4 |
| 20260509214108 | 61 | 224 | 2.0 | 5.0 | 0.00 | 0.00 | 0.00 | 68 | 1013.4 |
| 20260509214004 | 61 | 224 | 2.0 | 5.0 | 0.00 | 0.00 | 0.00 | 68 | 1013.4 |
| 20260509213904 | 61 | 222 | 2.0 | 6.0 | 0.00 | 0.00 | 0.00 | 68 | 1013.5 |
| 20260509213814 | 61 | 221 | 3.0 | 6.0 | 0.00 | 0.00 | 0.00 | 68 | 1013.4 |
| 20260509213604 | 61 | 221 | 3.0 | 6.0 | 0.00 | 0.00 | 0.00 | 67 | 1013.4 |
| 20260509213504 | 61 | 221 | 4.0 | 6.0 | 0.00 | 0.00 | 0.00 | 67 | 1013.5 |
| 20260509213404 | 61 | 221 | 4.0 | 6.0 | 0.00 | 0.00 | 0.00 | 67 | 1013.5 |
| 20260509213305 | 61 | 223 | 4.0 | 6.0 | 0.00 | 0.00 | 0.00 | 68 | 1013.4 |
| 20260509213205 | 61 | 224 | 3.0 | 6.0 | 0.00 | 0.00 | 0.00 | 68 | 1013.3 |
| 20260509213105 | 61 | 224 | 3.0 | 6.0 | 0.00 | 0.00 | 0.00 | 68 | 1013.4 |
| 20260509213004 | 61 | 226 | 3.0 | 6.0 | 0.00 | 0.00 | 0.00 | 68 | 1013.4 |
| 20260509212813 | 61 | 232 | 2.0 | 6.0 | 0.00 | 0.00 | 0.00 | 68 | 1013.4 |
| 20260509212704 | 61 | 235 | 2.0 | 6.0 | 0.00 | 0.00 | 0.00 | 69 | 1013.4 |
| 20260509212604 | 61 | 239 | 2.0 | 6.0 | 0.00 | 0.00 | 0.00 | 69 | 1013.4 |
| 20260509212504 | 61 | 249 | 2.0 | 5.0 | 0.00 | 0.00 | 0.00 | 69 | 1013.4 |
| 20260509212306 | 61 | 269 | 2.0 | 4.0 | 0.00 | 0.00 | 0.00 | 69 | 1013.4 |
| 20260509212204 | 61 | 280 | 1.0 | 4.0 | 0.00 | 0.00 | 0.00 | 69 | 1013.4 |
| 20260509212104 | 61 | 293 | 1.0 | 3.0 | 0.00 | 0.00 | 0.00 | 70 | 1013.4 |
| 20260509212004 | 62 | 298 | 1.0 | 3.0 | 0.00 | 0.00 | 0.00 | 70 | 1013.4 |
| 20260509211904 | 62 | 299 | 1.0 | 3.0 | 0.00 | 0.00 | 0.00 | 70 | 1013.3 |
| 20260509211804 | 61 | 299 | 1.0 | 3.0 | 0.00 | 0.00 | 0.00 | 70 | 1013.5 |
| 20260509211704 | 61 | 300 | 1.0 | 3.0 | 0.00 | 0.00 | 0.00 | 70 | 1013.4 |
| 20260509211514 | 61 | 301 | 1.0 | 3.0 | 0.00 | 0.00 | 0.00 | 71 | 1013.4 |
| 20260509211404 | 61 | 299 | 1.0 | 3.0 | 0.00 | 0.00 | 0.00 | 71 | 1013.4 |
| 20260509211204 | 61 | 306 | 1.0 | 3.0 | 0.00 | 0.00 | 0.00 | 70 | 1013.5 |
| 20260509211104 | 61 | 306 | 1.0 | 3.0 | 0.00 | 0.00 | 0.00 | 70 | 1013.4 |
| 20260509211004 | 62 | 306 | 1.0 | 3.0 | 0.00 | 0.00 | 0.00 | 70 | 1013.4 |
| 20260509210904 | 62 | 306 | 1.0 | 3.0 | 0.00 | 0.00 | 0.00 | 69 | 1013.4 |
| 20260509210804 | 62 | 305 | 1.0 | 3.0 | 0.00 | 0.00 | 0.00 | 69 | 1013.4 |
| 20260509210704 | 62 | 305 | 1.0 | 3.0 | 0.00 | 0.00 | 0.00 | 69 | 1013.5 |
| 20260509210604 | 62 | 306 | 1.0 | 3.0 | 0.00 | 0.00 | 0.00 | 68 | 1013.4 |
| 20260509210507 | 62 | 306 | 1.0 | 3.0 | 0.00 | 0.00 | 0.00 | 68 | 1013.4 |
| 20260509210404 | 62 | 307 | 1.0 | 3.0 | 0.00 | 0.00 | 0.00 | 68 | 1013.3 |
| 20260509210304 | 62 | 305 | 1.0 | 3.0 | 0.00 | 0.00 | 0.00 | 67 | 1013.4 |
| 20260509210214 | 62 | 300 | 1.0 | 3.0 | 0.00 | 0.00 | 0.00 | 67 | 1013.3 |
| 20260509210104 | 62 | 294 | 1.0 | 3.0 | 0.00 | 0.00 | 0.00 | 67 | 1013.3 |
| 20260509210004 | 62 | 289 | 1.0 | 3.0 | 0.00 | 0.00 | 0.00 | 67 | 1013.3 |
| 20260509205804 | 63 | 275 | 1.0 | 4.0 | 0.00 | 0.00 | 0.00 | 66 | 1013.3 |
| 20260509205704 | 62 | 270 | 2.0 | 4.0 | 0.00 | 0.00 | 0.00 | 66 | 1013.3 |
| 20260509205604 | 62 | 266 | 2.0 | 4.0 | 0.00 | 0.00 | 0.00 | 66 | 1013.3 |
| 20260509205506 | 63 | 259 | 2.0 | 4.0 | 0.00 | 0.00 | 0.00 | 66 | 1013.3 |
| 20260509205404 | 62 | 259 | 2.0 | 4.0 | 0.00 | 0.00 | 0.00 | 66 | 1013.3 |
| 20260509205307 | 62 | 260 | 2.0 | 5.0 | 0.00 | 0.00 | 0.00 | 66 | 1013.3 |
| 20260509205214 | 62 | 257 | 2.0 | 5.0 | 0.00 | 0.00 | 0.00 | 66 | 1013.4 |
| 20260509205104 | 62 | 255 | 2.0 | 5.0 | 0.00 | 0.00 | 0.00 | 67 | 1013.4 |
| 20260509205004 | 62 | 252 | 2.0 | 5.0 | 0.00 | 0.00 | 0.00 | 67 | 1013.4 |
| 20260509204904 | 62 | 253 | 3.0 | 6.0 | 0.00 | 0.00 | 0.00 | 67 | 1013.4 |
| 20260509204804 | 62 | 255 | 3.0 | 6.0 | 0.00 | 0.00 | 0.00 | 67 | 1013.4 |
| 20260509204704 | 62 | 253 | 3.0 | 6.0 | 0.00 | 0.00 | 0.00 | 67 | 1013.3 |
| 20260509204604 | 62 | 253 | 3.0 | 6.0 | 0.00 | 0.00 | 0.00 | 67 | 1013.4 |
| 20260509204505 | 62 | 252 | 4.0 | 6.0 | 0.00 | 0.00 | 0.00 | 67 | 1013.4 |
| 20260509204404 | 62 | 250 | 4.0 | 6.0 | 0.00 | 0.00 | 0.00 | 67 | 1013.4 |
| 20260509204207 | 62 | 248 | 3.0 | 6.0 | 0.00 | 0.00 | 0.00 | 68 | 1013.4 |
| 20260509204104 | 62 | 247 | 3.0 | 7.0 | 0.00 | 0.00 | 0.00 | 68 | 1013.4 |
| 20260509204005 | 62 | 246 | 3.0 | 7.0 | 0.00 | 0.00 | 0.00 | 68 | 1013.4 |
| 20260509203916 | 62 | 244 | 3.0 | 7.0 | 0.00 | 0.00 | 0.00 | 68 | 1013.3 |
| 20260509203804 | 62 | 243 | 3.0 | 7.0 | 0.00 | 0.00 | 0.00 | 68 | 1013.4 |
| 20260509203705 | 62 | 241 | 3.0 | 7.0 | 0.00 | 0.00 | 0.00 | 68 | 1013.3 |
| 20260509203604 | 62 | 239 | 3.0 | 7.0 | 0.00 | 0.00 | 0.00 | 68 | 1013.3 |
| 20260509203505 | 62 | 240 | 3.0 | 7.0 | 0.00 | 0.00 | 0.00 | 68 | 1013.3 |
| 20260509203404 | 62 | 239 | 3.0 | 7.0 | 0.00 | 0.00 | 0.00 | 68 | 1013.3 |
| 20260509203305 | 62 | 238 | 3.0 | 7.0 | 0.00 | 0.00 | 0.00 | 68 | 1013.3 |
| 20260509203004 | 62 | 240 | 3.0 | 6.0 | 0.00 | 0.00 | 0.00 | 68 | 1013.2 |
| 20260509202913 | 62 | 241 | 3.0 | 6.0 | 0.00 | 0.00 | 0.00 | 68 | 1013.3 |
| 20260509202804 | 62 | 241 | 2.0 | 6.0 | 0.00 | 0.00 | 0.00 | 68 | 1013.3 |
| 20260509202704 | 62 | 243 | 2.0 | 6.0 | 0.00 | 0.00 | 0.00 | 69 | 1013.2 |
| 20260509202504 | 62 | 243 | 3.0 | 7.0 | 0.00 | 0.00 | 0.00 | 69 | 1013.1 |
| 20260509202404 | 62 | 242 | 3.0 | 7.0 | 0.00 | 0.00 | 0.00 | 68 | 1013.2 |
| 20260509202306 | 62 | 241 | 3.0 | 7.0 | 0.00 | 0.00 | 0.00 | 68 | 1013.1 |
| 20260509202204 | 63 | 239 | 4.0 | 8.0 | 0.00 | 0.00 | 0.00 | 68 | 1013.0 |
| 20260509202104 | 63 | 237 | 4.0 | 8.0 | 0.00 | 0.00 | 0.00 | 68 | 1013.1 |
| 20260509202005 | 63 | 235 | 4.0 | 8.0 | 0.00 | 0.00 | 0.00 | 68 | 1013.2 |
| 20260509201907 | 63 | 233 | 5.0 | 8.0 | 0.00 | 0.00 | 0.00 | 68 | 1013.0 |
| 20260509201804 | 63 | 231 | 5.0 | 8.0 | 0.00 | 0.00 | 0.00 | 68 | 1013.0 |
| 20260509201704 | 63 | 229 | 5.0 | 8.0 | 0.00 | 0.00 | 0.00 | 68 | 1012.9 |
| 20260509201615 | 63 | 228 | 5.0 | 8.0 | 0.00 | 0.00 | 0.00 | 67 | 1013.0 |
| 20260509201505 | 63 | 225 | 5.0 | 8.0 | 0.00 | 0.00 | 0.00 | 67 | 1013.1 |
| 20260509201404 | 63 | 223 | 6.0 | 9.0 | 0.00 | 0.00 | 0.00 | 67 | 1013.0 |
| 20260509201304 | 63 | 220 | 6.0 | 9.0 | 0.00 | 0.00 | 0.00 | 67 | 1013.0 |
| 20260509201204 | 63 | 219 | 6.0 | 9.0 | 0.00 | 0.00 | 0.00 | 67 | 1013.0 |
| 20260509201104 | 63 | 218 | 6.0 | 9.0 | 0.00 | 0.00 | 0.00 | 67 | 1013.0 |
| 20260509201004 | 63 | 217 | 6.0 | 9.0 | 0.00 | 0.00 | 0.00 | 67 | 1013.0 |
| 20260509200904 | 63 | 218 | 5.0 | 9.0 | 0.00 | 0.00 | 0.00 | 67 | 1012.9 |
| 20260509200803 | 63 | 218 | 5.0 | 9.0 | 0.00 | 0.00 | 0.00 | 67 | 1013.0 |
| 20260509200704 | 63 | 218 | 5.0 | 9.0 | 0.00 | 0.00 | 0.00 | 67 | 1012.9 |
| 20260509200607 | 63 | 218 | 5.0 | 9.0 | 0.00 | 0.00 | 0.00 | 67 | 1012.9 |
| 20260509200504 | 63 | 218 | 5.0 | 9.0 | 0.00 | 0.00 | 0.00 | 67 | 1012.9 |
| 20260509200404 | 63 | 219 | 5.0 | 9.0 | 0.00 | 0.00 | 0.00 | 67 | 1012.9 |
| 20260509200316 | 63 | 221 | 5.0 | 8.0 | 0.00 | 0.00 | 0.00 | 67 | 1012.9 |
| 20260509200203 | 63 | 221 | 5.0 | 8.0 | 0.00 | 0.00 | 0.00 | 67 | 1012.9 |
| 20260509200104 | 63 | 221 | 5.0 | 7.0 | 0.00 | 0.00 | 0.00 | 67 | 1012.9 |
| 20260509200004 | 63 | 221 | 5.0 | 7.0 | 0.00 | 0.00 | 0.00 | 67 | 1012.8 |
| 20260509195904 | 63 | 221 | 5.0 | 7.0 | 0.00 | 0.00 | 0.00 | 67 | 1012.8 |
| 20260509195804 | 63 | 221 | 5.0 | 7.0 | 0.00 | 0.00 | 0.00 | 67 | 1012.8 |
| 20260509195704 | 63 | 220 | 5.0 | 7.0 | 0.00 | 0.00 | 0.00 | 67 | 1012.8 |
| 20260509195604 | 63 | 221 | 4.0 | 7.0 | 0.00 | 0.00 | 0.00 | 67 | 1012.8 |
| 20260509195504 | 64 | 221 | 4.0 | 7.0 | 0.00 | 0.00 | 0.00 | 67 | 1012.7 |
| 20260509195404 | 64 | 221 | 4.0 | 7.0 | 0.00 | 0.00 | 0.00 | 67 | 1012.6 |
| 20260509195309 | 64 | 222 | 4.0 | 7.0 | 0.00 | 0.00 | 0.00 | 67 | 1012.6 |
| 20260509195205 | 64 | 222 | 4.0 | 7.0 | 0.00 | 0.00 | 0.00 | 67 | 1012.7 |
| 20260509195104 | 64 | 222 | 4.0 | 7.0 | 0.00 | 0.00 | 0.00 | 67 | 1012.6 |
| 20260509195015 | 64 | 223 | 4.0 | 7.0 | 0.00 | 0.00 | 0.00 | 67 | 1012.6 |
| 20260509194704 | 64 | 228 | 4.0 | 7.0 | 0.00 | 0.00 | 0.00 | 67 | 1012.7 |
| 20260509194605 | 64 | 228 | 5.0 | 7.0 | 0.00 | 0.00 | 0.00 | 67 | 1012.5 |
| 20260509194505 | 64 | 229 | 5.0 | 7.0 | 0.00 | 0.00 | 0.00 | 66 | 1012.6 |
| 20260509194404 | 64 | 231 | 5.0 | 7.0 | 0.00 | 0.00 | 0.00 | 66 | 1012.5 |
| 20260509194304 | 64 | 232 | 4.0 | 7.0 | 0.00 | 0.00 | 0.00 | 66 | 1012.5 |
| 20260509194204 | 64 | 233 | 4.0 | 7.0 | 0.00 | 0.00 | 0.00 | 66 | 1012.4 |
| 20260509194104 | 64 | 234 | 4.0 | 7.0 | 0.00 | 0.00 | 0.00 | 66 | 1012.4 |
| 20260509194008 | 64 | 236 | 4.0 | 7.0 | 0.00 | 0.00 | 0.00 | 66 | 1012.4 |
| 20260509193904 | 64 | 237 | 4.0 | 7.0 | 0.00 | 0.00 | 0.00 | 66 | 1012.5 |
| 20260509193805 | 64 | 238 | 4.0 | 7.0 | 0.00 | 0.00 | 0.00 | 66 | 1012.4 |
| 20260509193716 | 64 | 237 | 4.0 | 7.0 | 0.00 | 0.00 | 0.00 | 66 | 1012.4 |
| 20260509193604 | 64 | 237 | 3.0 | 6.0 | 0.00 | 0.00 | 0.00 | 66 | 1012.4 |
| 20260509193505 | 64 | 237 | 3.0 | 6.0 | 0.00 | 0.00 | 0.00 | 66 | 1012.5 |
| 20260509193303 | 64 | 236 | 3.0 | 6.0 | 0.00 | 0.00 | 0.00 | 66 | 1012.4 |
| 20260509193204 | 64 | 236 | 3.0 | 6.0 | 0.00 | 0.00 | 0.00 | 66 | 1012.5 |
| 20260509193104 | 64 | 235 | 3.0 | 6.0 | 0.00 | 0.00 | 0.00 | 66 | 1012.4 |
| 20260509193006 | 64 | 232 | 3.0 | 6.0 | 0.00 | 0.00 | 0.00 | 66 | 1012.4 |
| 20260509192904 | 65 | 229 | 3.0 | 6.0 | 0.00 | 0.00 | 0.00 | 66 | 1012.4 |
| 20260509192803 | 65 | 229 | 3.0 | 6.0 | 0.00 | 0.00 | 0.00 | 66 | 1012.4 |
| 20260509192714 | 65 | 229 | 3.0 | 6.0 | 0.00 | 0.00 | 0.00 | 65 | 1012.4 |
| 20260509192604 | 65 | 227 | 4.0 | 6.0 | 0.00 | 0.00 | 0.00 | 65 | 1012.4 |
| 20260509192404 | 65 | 227 | 4.0 | 6.0 | 0.00 | 0.00 | 0.00 | 65 | 1012.4 |
| 20260509192204 | 65 | 227 | 4.0 | 6.0 | 0.00 | 0.00 | 0.00 | 65 | 1012.4 |
| 20260509192104 | 65 | 226 | 4.0 | 6.0 | 0.00 | 0.00 | 0.00 | 65 | 1012.4 |
| 20260509192004 | 65 | 226 | 4.0 | 6.0 | 0.00 | 0.00 | 0.00 | 65 | 1012.4 |
| 20260509191905 | 65 | 226 | 4.0 | 6.0 | 0.00 | 0.00 | 0.00 | 65 | 1012.4 |
| 20260509191804 | 65 | 225 | 3.0 | 6.0 | 0.00 | 0.00 | 0.00 | 65 | 1012.3 |
| 20260509191706 | 65 | 226 | 3.0 | 6.0 | 0.00 | 0.00 | 0.00 | 65 | 1012.4 |
| 20260509191605 | 65 | 225 | 3.0 | 5.0 | 0.00 | 0.00 | 0.00 | 65 | 1012.3 |
| 20260509191414 | 65 | 220 | 3.0 | 5.0 | 0.00 | 0.00 | 0.00 | 64 | 1012.4 |
| 20260509191304 | 65 | 215 | 2.0 | 5.0 | 0.00 | 0.00 | 0.00 | 64 | 1012.3 |
| 20260509191204 | 65 | 214 | 2.0 | 5.0 | 0.00 | 0.00 | 0.00 | 64 | 1012.4 |
| 20260509191105 | 65 | 214 | 2.0 | 5.0 | 0.00 | 0.00 | 0.00 | 64 | 1012.3 |
| 20260509191004 | 65 | 214 | 1.0 | 3.0 | 0.00 | 0.00 | 0.00 | 64 | 1012.3 |
| 20260509190904 | 65 | 213 | 1.0 | 3.0 | 0.00 | 0.00 | 0.00 | 64 | 1012.4 |
| 20260509190804 | 65 | 211 | 1.0 | 3.0 | 0.00 | 0.00 | 0.00 | 64 | 1012.4 |
| 20260509190604 | 66 | 222 | 1.0 | 3.0 | 0.00 | 0.00 | 0.00 | 63 | 1012.3 |
| 20260509190504 | 66 | 250 | 1.0 | 3.0 | 0.00 | 0.00 | 0.00 | 63 | 1012.2 |
| 20260509190406 | 66 | 270 | 1.0 | 3.0 | 0.00 | 0.00 | 0.00 | 63 | 1012.2 |
| 20260509190205 | 66 | 261 | 1.0 | 7.0 | 0.00 | 0.00 | 0.00 | 63 | 1012.3 |
| 20260509190114 | 66 | 255 | 2.0 | 7.0 | 0.00 | 0.00 | 0.00 | 63 | 1012.3 |
| 20260509190006 | 66 | 247 | 2.0 | 9.0 | 0.00 | 0.00 | 0.00 | 63 | 1012.2 |
| 20260509185905 | 66 | 242 | 3.0 | 9.0 | 0.00 | 0.00 | 0.00 | 63 | 1012.2 |
| 20260509185805 | 66 | 239 | 3.0 | 9.0 | 0.00 | 0.00 | 0.00 | 64 | 1012.2 |
| 20260509185704 | 66 | 235 | 4.0 | 9.0 | 0.00 | 0.00 | 0.00 | 64 | 1012.2 |
| 20260509185504 | 66 | 230 | 5.0 | 9.0 | 0.00 | 0.00 | 0.00 | 64 | 1012.1 |
| 20260509185404 | 66 | 227 | 5.0 | 9.0 | 0.00 | 0.00 | 0.00 | 64 | 1012.1 |
| 20260509185306 | 66 | 226 | 5.0 | 9.0 | 0.00 | 0.00 | 0.00 | 64 | 1012.2 |
| 20260509185204 | 66 | 225 | 5.0 | 9.0 | 0.00 | 0.00 | 0.00 | 64 | 1012.2 |
| 20260509185106 | 66 | 222 | 5.0 | 9.0 | 0.00 | 0.00 | 0.00 | 64 | 1012.1 |
| 20260509184904 | 66 | 219 | 5.0 | 8.0 | 0.00 | 0.00 | 0.00 | 64 | 1012.2 |
| 20260509184813 | 66 | 219 | 5.0 | 8.0 | 0.00 | 0.00 | 0.00 | 64 | 1012.2 |
| 20260509184704 | 66 | 218 | 5.0 | 8.0 | 0.00 | 0.00 | 0.00 | 64 | 1012.2 |
| 20260509184504 | 66 | 216 | 5.0 | 8.0 | 0.00 | 0.00 | 0.00 | 64 | 1012.1 |
| 20260509184404 | 66 | 215 | 5.0 | 7.0 | 0.00 | 0.00 | 0.00 | 64 | 1012.2 |
| 20260509184304 | 66 | 215 | 5.0 | 7.0 | 0.00 | 0.00 | 0.00 | 64 | 1012.0 |
| 20260509183904 | 67 | 215 | 4.0 | 7.0 | 0.00 | 0.00 | 0.00 | 64 | 1012.1 |
| 20260509183806 | 67 | 214 | 4.0 | 7.0 | 0.00 | 0.00 | 0.00 | 64 | 1012.1 |
| 20260509183604 | 67 | 215 | 4.0 | 7.0 | 0.00 | 0.00 | 0.00 | 64 | 1012.1 |
| 20260509183513 | 67 | 216 | 4.0 | 7.0 | 0.00 | 0.00 | 0.00 | 63 | 1012.1 |
| 20260509183404 | 67 | 217 | 4.0 | 7.0 | 0.00 | 0.00 | 0.00 | 63 | 1012.0 |
| 20260509183304 | 67 | 217 | 4.0 | 7.0 | 0.00 | 0.00 | 0.00 | 63 | 1012.1 |
| 20260509183104 | 67 | 216 | 4.0 | 7.0 | 0.00 | 0.00 | 0.00 | 63 | 1012.1 |
| 20260509183004 | 67 | 216 | 4.0 | 7.0 | 0.00 | 0.00 | 0.00 | 63 | 1012.0 |
| 20260509182904 | 67 | 215 | 4.0 | 8.0 | 0.00 | 0.00 | 0.00 | 63 | 1012.1 |
| 20260509182804 | 67 | 214 | 5.0 | 9.0 | 0.00 | 0.00 | 0.00 | 63 | 1012.0 |
| 20260509182704 | 67 | 213 | 5.0 | 9.0 | 0.00 | 0.00 | 0.00 | 63 | 1012.0 |
| 20260509182604 | 67 | 213 | 5.0 | 9.0 | 0.00 | 0.00 | 0.00 | 63 | 1012.0 |
| 20260509182506 | 67 | 212 | 5.0 | 9.0 | 0.00 | 0.00 | 0.00 | 64 | 1012.0 |
| 20260509182404 | 67 | 211 | 5.0 | 9.0 | 0.00 | 0.00 | 0.00 | 63 | 1012.1 |
| 20260509182306 | 68 | 210 | 6.0 | 9.0 | 0.00 | 0.00 | 0.00 | 63 | 1012.0 |
| 20260509182214 | 68 | 209 | 6.0 | 9.0 | 0.00 | 0.00 | 0.00 | 63 | 1012.1 |
| 20260509182104 | 68 | 208 | 6.0 | 9.0 | 0.00 | 0.00 | 0.00 | 63 | 1012.0 |
| 20260509182005 | 68 | 208 | 6.0 | 9.0 | 0.00 | 0.00 | 0.00 | 63 | 1012.1 |
| 20260509181804 | 68 | 208 | 5.0 | 9.0 | 0.00 | 0.00 | 0.00 | 63 | 1012.0 |
| 20260509181704 | 68 | 210 | 5.0 | 9.0 | 0.00 | 0.00 | 0.00 | 63 | 1012.0 |
| 20260509181605 | 68 | 210 | 5.0 | 9.0 | 0.00 | 0.00 | 0.00 | 62 | 1011.9 |
| 20260509181505 | 68 | 211 | 4.0 | 9.0 | 0.00 | 0.00 | 0.00 | 62 | 1011.9 |
| 20260509181404 | 68 | 213 | 4.0 | 9.0 | 0.00 | 0.00 | 0.00 | 62 | 1011.9 |
| 20260509181304 | 68 | 215 | 3.0 | 9.0 | 0.00 | 0.00 | 0.00 | 62 | 1012.0 |
| 20260509181205 | 69 | 219 | 3.0 | 8.0 | 0.00 | 0.00 | 0.00 | 62 | 1011.8 |
| 20260509181104 | 69 | 223 | 2.0 | 7.0 | 0.00 | 0.00 | 0.00 | 62 | 1011.8 |
| 20260509181005 | 69 | 227 | 2.0 | 6.0 | 0.00 | 0.00 | 0.00 | 62 | 1011.8 |
| 20260509180913 | 69 | 228 | 2.0 | 6.0 | 0.00 | 0.00 | 0.00 | 62 | 1011.8 |
| 20260509180804 | 69 | 231 | 2.0 | 6.0 | 0.00 | 0.00 | 0.00 | 62 | 1011.8 |
| 20260509180704 | 69 | 238 | 2.0 | 4.0 | 0.00 | 0.00 | 0.00 | 62 | 1011.8 |
| 20260509180604 | 69 | 238 | 1.0 | 4.0 | 0.00 | 0.00 | 0.00 | 61 | 1011.8 |
| 20260509180504 | 69 | 244 | 1.0 | 4.0 | 0.00 | 0.00 | 0.00 | 62 | 1011.8 |
| 20260509180304 | 69 | 244 | 1.0 | 4.0 | 0.00 | 0.00 | 0.00 | 61 | 1011.8 |
| 20260509180204 | 69 | 245 | 1.0 | 4.0 | 0.00 | 0.00 | 0.00 | 61 | 1011.7 |
| 20260509180104 | 69 | 246 | 2.0 | 4.0 | 0.00 | 0.00 | 0.00 | 61 | 1011.8 |
| 20260509180004 | 70 | 249 | 1.0 | 4.0 | 0.00 | 0.00 | 0.00 | 60 | 1011.7 |
| 20260509175804 | 70 | 237 | 2.0 | 4.0 | 0.00 | 0.00 | 0.00 | 60 | 1011.8 |
| 20260509175704 | 70 | 231 | 1.0 | 4.0 | 0.00 | 0.00 | 0.00 | 60 | 1011.7 |
| 20260509175615 | 70 | 229 | 2.0 | 4.0 | 0.00 | 0.00 | 0.00 | 60 | 1011.8 |
| 20260509175505 | 70 | 222 | 2.0 | 4.0 | 0.00 | 0.00 | 0.00 | 59 | 1011.8 |
| 20260509175404 | 70 | 219 | 1.0 | 4.0 | 0.00 | 0.00 | 0.00 | 59 | 1011.7 |
| 20260509175306 | 70 | 218 | 1.0 | 4.0 | 0.00 | 0.00 | 0.00 | 59 | 1011.8 |
| 20260509175204 | 70 | 215 | 1.0 | 4.0 | 0.00 | 0.00 | 0.00 | 59 | 1011.9 |
| 20260509175104 | 70 | 215 | 1.0 | 4.0 | 0.00 | 0.00 | 0.00 | 59 | 1011.8 |
| 20260509175004 | 70 | 220 | 1.0 | 4.0 | 0.00 | 0.00 | 0.00 | 58 | 1011.7 |
| 20260509174904 | 70 | 222 | 1.0 | 4.0 | 0.00 | 0.00 | 0.00 | 58 | 1011.9 |
| 20260509174804 | 70 | 227 | 1.0 | 4.0 | 0.00 | 0.00 | 0.00 | 58 | 1011.9 |
| 20260509174704 | 70 | 235 | 1.0 | 4.0 | 0.00 | 0.00 | 0.00 | 58 | 1011.9 |
| 20260509174607 | 71 | 240 | 1.0 | 4.0 | 0.00 | 0.00 | 0.00 | 57 | 1011.9 |
| 20260509174404 | 71 | 240 | 1.0 | 3.0 | 0.00 | 0.00 | 0.00 | 57 | 1011.9 |
| 20260509174315 | 71 | 236 | 1.0 | 3.0 | 0.00 | 0.00 | 0.00 | 57 | 1011.8 |
| 20260509174204 | 71 | 233 | 1.0 | 3.0 | 0.00 | 0.00 | 0.00 | 57 | 1011.8 |
| 20260509174104 | 71 | 228 | 2.0 | 3.0 | 0.00 | 0.00 | 0.00 | 57 | 1011.8 |
| 20260509174004 | 70 | 223 | 2.0 | 3.0 | 0.00 | 0.00 | 0.00 | 57 | 1011.8 |
| 20260509173904 | 71 | 221 | 2.0 | 3.0 | 0.00 | 0.00 | 0.00 | 57 | 1011.8 |
| 20260509173804 | 70 | 218 | 2.0 | 3.0 | 0.00 | 0.00 | 0.00 | 57 | 1011.8 |
| 20260509173704 | 70 | 214 | 2.0 | 3.0 | 0.00 | 0.00 | 0.00 | 56 | 1011.9 |
| 20260509173604 | 70 | 212 | 2.0 | 3.0 | 0.00 | 0.00 | 0.00 | 57 | 1011.9 |
| 20260509173504 | 70 | 212 | 2.0 | 3.0 | 0.00 | 0.00 | 0.00 | 57 | 1011.8 |
| 20260509173404 | 70 | 212 | 2.0 | 3.0 | 0.00 | 0.00 | 0.00 | 57 | 1011.9 |
| 20260509173306 | 71 | 213 | 2.0 | 3.0 | 0.00 | 0.00 | 0.00 | 57 | 1011.8 |
| 20260509173204 | 71 | 215 | 2.0 | 3.0 | 0.00 | 0.00 | 0.00 | 57 | 1011.8 |
| 20260509173104 | 71 | 216 | 2.0 | 3.0 | 0.00 | 0.00 | 0.00 | 57 | 1011.8 |
| 20260509173014 | 71 | 218 | 2.0 | 3.0 | 0.00 | 0.00 | 0.00 | 56 | 1011.9 |
| 20260509172904 | 71 | 224 | 2.0 | 3.0 | 0.00 | 0.00 | 0.00 | 56 | 1011.9 |
| 20260509172804 | 71 | 229 | 2.0 | 3.0 | 0.00 | 0.00 | 0.00 | 56 | 1011.9 |
| 20260509172704 | 71 | 234 | 1.0 | 3.0 | 0.00 | 0.00 | 0.00 | 56 | 1011.9 |
| 20260509172504 | 71 | 240 | 1.0 | 3.0 | 0.00 | 0.00 | 0.00 | 56 | 1011.9 |
| 20260509172306 | 71 | 254 | 1.0 | 3.0 | 0.00 | 0.00 | 0.00 | 55 | 1011.9 |
| 20260509172204 | 71 | 266 | 1.0 | 2.0 | 0.00 | 0.00 | 0.00 | 55 | 1011.9 |
| 20260509172104 | 71 | 277 | 1.0 | 2.0 | 0.00 | 0.00 | 0.00 | 55 | 1011.9 |
| 20260509172006 | 71 | 291 | 1.0 | 2.0 | 0.00 | 0.00 | 0.00 | 55 | 1011.9 |
| 20260509171904 | 71 | 298 | 1.0 | 3.0 | 0.00 | 0.00 | 0.00 | 55 | 1011.9 |
| 20260509171804 | 71 | 296 | 1.0 | 3.0 | 0.00 | 0.00 | 0.00 | 55 | 1011.9 |
| 20260509171714 | 71 | 299 | 1.0 | 3.0 | 0.00 | 0.00 | 0.00 | 55 | 1011.8 |
| 20260509171604 | 71 | 302 | 1.0 | 3.0 | 0.00 | 0.00 | 0.00 | 55 | 1011.9 |
| 20260509171505 | 71 | 303 | 1.0 | 3.0 | 0.00 | 0.00 | 0.00 | 55 | 1011.8 |
| 20260509171404 | 71 | 301 | 1.0 | 3.0 | 0.00 | 0.00 | 0.00 | 55 | 1011.8 |
| 20260509171304 | 71 | 300 | 2.0 | 3.0 | 0.00 | 0.00 | 0.00 | 55 | 1011.8 |
| 20260509171204 | 71 | 300 | 2.0 | 3.0 | 0.00 | 0.00 | 0.00 | 55 | 1011.8 |
| 20260509171004 | 71 | 299 | 2.0 | 3.0 | 0.00 | 0.00 | 0.00 | 54 | 1011.8 |
| 20260509170904 | 71 | 298 | 1.0 | 3.0 | 0.00 | 0.00 | 0.00 | 54 | 1011.8 |
| 20260509170603 | 72 | 267 | 1.0 | 3.0 | 0.00 | 0.00 | 0.00 | 53 | 1011.8 |
| 20260509170505 | 72 | 246 | 1.0 | 3.0 | 0.00 | 0.00 | 0.00 | 53 | 1011.7 |
| 20260509170413 | 72 | 227 | 1.0 | 3.0 | 0.00 | 0.00 | 0.00 | 53 | 1011.8 |
| 20260509170304 | 72 | 211 | 1.0 | 4.0 | 0.00 | 0.00 | 0.00 | 51 | 1011.7 |
| 20260509170204 | 72 | 205 | 2.0 | 4.0 | 0.00 | 0.00 | 0.00 | 50 | 1011.8 |
| 20260509170104 | 72 | 197 | 2.0 | 4.0 | 0.00 | 0.00 | 0.00 | 49 | 1011.7 |
| 20260509170004 | 72 | 193 | 2.0 | 4.0 | 0.00 | 0.00 | 0.00 | 48 | 1011.7 |
| 20260509165905 | 72 | 187 | 2.0 | 4.0 | 0.00 | 0.00 | 0.00 | 48 | 1011.8 |
| 20260509165803 | 72 | 183 | 2.0 | 4.0 | 0.00 | 0.00 | 0.00 | 44 | 1011.7 |
| 20260509165704 | 72 | 176 | 1.0 | 4.0 | 0.00 | 0.00 | 0.00 | 44 | 1011.7 |
| 20260509165603 | 72 | 170 | 1.0 | 4.0 | 0.00 | 0.00 | 0.00 | 44 | 1011.8 |
| 20260509165504 | 72 | 166 | 1.0 | 4.0 | 0.00 | 0.00 | 0.00 | 44 | 1011.7 |
| 20260509165306 | 72 | 148 | 1.0 | 3.0 | 0.00 | 0.00 | 0.00 | 44 | 1011.7 |
| 20260509165204 | 73 | 132 | 1.0 | 3.0 | 0.00 | 0.00 | 0.00 | 45 | 1011.6 |
| 20260509165113 | 73 | 124 | 1.0 | 3.0 | 0.00 | 0.00 | 0.00 | 45 | 1011.8 |
| 20260509165004 | 73 | 116 | 1.0 | 4.0 | 0.00 | 0.00 | 0.00 | 45 | 1011.6 |
| 20260509164905 | 73 | 116 | 1.0 | 4.0 | 0.00 | 0.00 | 0.00 | 46 | 1011.7 |
| 20260509164804 | 73 | 116 | 1.0 | 4.0 | 0.00 | 0.00 | 0.00 | 45 | 1011.7 |
| 20260509164704 | 73 | 117 | 1.0 | 4.0 | 0.00 | 0.00 | 0.00 | 45 | 1011.7 |
| 20260509164604 | 73 | 114 | 1.0 | 4.0 | 0.00 | 0.00 | 0.00 | 45 | 1011.8 |
| 20260509164504 | 72 | 116 | 1.0 | 4.0 | 0.00 | 0.00 | 0.00 | 44 | 1011.7 |
| 20260509164404 | 72 | 113 | 1.0 | 5.0 | 0.00 | 0.00 | 0.00 | 44 | 1011.7 |
| 20260509164304 | 73 | 111 | 2.0 | 5.0 | 0.00 | 0.00 | 0.00 | 44 | 1011.7 |
| 20260509164204 | 73 | 116 | 2.0 | 5.0 | 0.00 | 0.00 | 0.00 | 44 | 1011.8 |
| 20260509164107 | 73 | 122 | 2.0 | 6.0 | 0.00 | 0.00 | 0.00 | 43 | 1011.8 |
| 20260509164004 | 73 | 132 | 2.0 | 6.0 | 0.00 | 0.00 | 0.00 | 44 | 1011.8 |
| 20260509163904 | 73 | 137 | 2.0 | 6.0 | 0.00 | 0.00 | 0.00 | 44 | 1011.7 |
| 20260509163815 | 73 | 140 | 3.0 | 6.0 | 0.00 | 0.00 | 0.00 | 43 | 1011.8 |
| 20260509163604 | 72 | 150 | 3.0 | 6.0 | 0.00 | 0.00 | 0.00 | 43 | 1011.7 |
| 20260509163505 | 72 | 158 | 4.0 | 6.0 | 0.00 | 0.00 | 0.00 | 44 | 1011.9 |
| 20260509163404 | 72 | 166 | 4.0 | 7.0 | 0.00 | 0.00 | 0.00 | 45 | 1011.9 |
| 20260509163204 | 72 | 172 | 5.0 | 7.0 | 0.00 | 0.00 | 0.00 | 44 | 1011.9 |
| 20260509163105 | 72 | 177 | 5.0 | 7.0 | 0.00 | 0.00 | 0.00 | 44 | 1011.9 |
| 20260509163004 | 72 | 178 | 4.0 | 7.0 | 0.00 | 0.00 | 0.00 | 44 | 1011.9 |
| 20260509162813 | 72 | 186 | 4.0 | 7.0 | 0.00 | 0.00 | 0.00 | 45 | 1011.9 |
| 20260509162704 | 72 | 188 | 4.0 | 7.0 | 0.00 | 0.00 | 0.00 | 45 | 1012.0 |
| 20260509162504 | 72 | 192 | 4.0 | 7.0 | 0.00 | 0.00 | 0.00 | 45 | 1011.9 |
| 20260509162405 | 72 | 193 | 3.0 | 7.0 | 0.00 | 0.00 | 0.00 | 46 | 1012.0 |
| 20260509162307 | 72 | 191 | 3.0 | 7.0 | 0.00 | 0.00 | 0.00 | 46 | 1011.9 |
| 20260509162004 | 72 | 184 | 3.0 | 6.0 | 0.00 | 0.00 | 0.00 | 47 | 1012.0 |
| 20260509161904 | 72 | 184 | 4.0 | 6.0 | 0.00 | 0.00 | 0.00 | 47 | 1012.0 |
| 20260509161805 | 72 | 181 | 3.0 | 6.0 | 0.00 | 0.00 | 0.00 | 46 | 1012.0 |
| 20260509161704 | 72 | 178 | 3.0 | 6.0 | 0.00 | 0.00 | 0.00 | 46 | 1012.0 |
| 20260509161514 | 72 | 167 | 4.0 | 6.0 | 0.00 | 0.00 | 0.00 | 46 | 1012.1 |
| 20260509161404 | 72 | 163 | 4.0 | 6.0 | 0.00 | 0.00 | 0.00 | 46 | 1012.1 |
| 20260509161304 | 72 | 163 | 4.0 | 8.0 | 0.00 | 0.00 | 0.00 | 46 | 1012.1 |
| 20260509161204 | 72 | 162 | 4.0 | 8.0 | 0.00 | 0.00 | 0.00 | 46 | 1012.1 |
| 20260509161104 | 72 | 160 | 3.0 | 8.0 | 0.00 | 0.00 | 0.00 | 46 | 1012.1 |
| 20260509161004 | 72 | 156 | 3.0 | 8.0 | 0.00 | 0.00 | 0.00 | 46 | 1012.0 |
| 20260509160904 | 72 | 149 | 3.0 | 8.0 | 0.00 | 0.00 | 0.00 | 46 | 1012.0 |
| 20260509160804 | 73 | 149 | 3.0 | 8.0 | 0.00 | 0.00 | 0.00 | 46 | 1012.0 |
| 20260509160704 | 73 | 148 | 3.0 | 8.0 | 0.00 | 0.00 | 0.00 | 46 | 1012.0 |
| 20260509160604 | 73 | 151 | 3.0 | 8.0 | 0.00 | 0.00 | 0.00 | 46 | 1012.1 |
| 20260509160514 | 73 | 151 | 3.0 | 8.0 | 0.00 | 0.00 | 0.00 | 47 | 1012.1 |
| 20260509160304 | 73 | 158 | 3.0 | 7.0 | 0.00 | 0.00 | 0.00 | 47 | 1012.1 |
| 20260509160203 | 73 | 158 | 3.0 | 7.0 | 0.00 | 0.00 | 0.00 | 47 | 1012.1 |
| 20260509160104 | 73 | 159 | 3.0 | 7.0 | 0.00 | 0.00 | 0.00 | 46 | 1012.1 |
| 20260509160005 | 73 | 165 | 3.0 | 7.0 | 0.00 | 0.00 | 0.00 | 47 | 1012.1 |
| 20260509155803 | 73 | 171 | 3.0 | 6.0 | 0.00 | 0.00 | 0.00 | 47 | 1012.2 |
| 20260509155704 | 73 | 174 | 3.0 | 6.0 | 0.00 | 0.00 | 0.00 | 47 | 1012.1 |
| 20260509155604 | 73 | 176 | 3.0 | 6.0 | 0.00 | 0.00 | 0.00 | 47 | 1012.1 |
| 20260509155506 | 73 | 182 | 3.0 | 6.0 | 0.00 | 0.00 | 0.00 | 46 | 1012.1 |
| 20260509155404 | 73 | 184 | 3.0 | 6.0 | 0.00 | 0.00 | 0.00 | 46 | 1012.0 |
| 20260509155306 | 73 | 183 | 3.0 | 6.0 | 0.00 | 0.00 | 0.00 | 45 | 1012.1 |
| 20260509155213 | 73 | 186 | 3.0 | 6.0 | 0.00 | 0.00 | 0.00 | 46 | 1012.1 |
| 20260509155104 | 73 | 186 | 3.0 | 7.0 | 0.00 | 0.00 | 0.00 | 46 | 1012.2 |
| 20260509155004 | 73 | 185 | 3.0 | 7.0 | 0.00 | 0.00 | 0.00 | 45 | 1012.1 |
| 20260509154904 | 73 | 186 | 3.0 | 7.0 | 0.00 | 0.00 | 0.00 | 47 | 1012.1 |
| 20260509154804 | 73 | 187 | 3.0 | 7.0 | 0.00 | 0.00 | 0.00 | 48 | 1012.1 |
| 20260509154704 | 73 | 187 | 3.0 | 7.0 | 0.00 | 0.00 | 0.00 | 47 | 1012.1 |
| 20260509154404 | 72 | 186 | 4.0 | 7.0 | 0.00 | 0.00 | 0.00 | 47 | 1012.2 |
| 20260509154304 | 72 | 185 | 4.0 | 8.0 | 0.00 | 0.00 | 0.00 | 47 | 1012.2 |
| 20260509154207 | 72 | 185 | 4.0 | 8.0 | 0.00 | 0.00 | 0.00 | 47 | 1012.1 |
| 20260509154103 | 72 | 185 | 4.0 | 9.0 | 0.00 | 0.00 | 0.00 | 48 | 1012.2 |
| 20260509154004 | 72 | 187 | 4.0 | 9.0 | 0.00 | 0.00 | 0.00 | 47 | 1012.2 |
| 20260509153916 | 72 | 187 | 5.0 | 9.0 | 0.00 | 0.00 | 0.00 | 47 | 1012.1 |
| 20260509153703 | 72 | 186 | 5.0 | 9.0 | 0.00 | 0.00 | 0.00 | 48 | 1012.3 |
| 20260509153605 | 72 | 187 | 5.0 | 9.0 | 0.00 | 0.00 | 0.00 | 47 | 1012.3 |
| 20260509153504 | 72 | 189 | 5.0 | 9.0 | 0.00 | 0.00 | 0.00 | 48 | 1012.2 |
| 20260509153404 | 72 | 186 | 5.0 | 9.0 | 0.00 | 0.00 | 0.00 | 48 | 1012.3 |
| 20260509153304 | 72 | 186 | 5.0 | 9.0 | 0.00 | 0.00 | 0.00 | 48 | 1012.3 |
| 20260509153206 | 72 | 185 | 5.0 | 12.0 | 0.00 | 0.00 | 0.00 | 47 | 1012.2 |
| 20260509153104 | 72 | 182 | 5.0 | 12.0 | 0.00 | 0.00 | 0.00 | 48 | 1012.2 |
| 20260509153004 | 72 | 178 | 5.0 | 12.0 | 0.00 | 0.00 | 0.00 | 47 | 1012.3 |
| 20260509152914 | 72 | 177 | 6.0 | 12.0 | 0.00 | 0.00 | 0.00 | 47 | 1012.2 |
| 20260509152803 | 72 | 175 | 6.0 | 12.0 | 0.00 | 0.00 | 0.00 | 47 | 1012.2 |
| 20260509152705 | 72 | 174 | 5.0 | 12.0 | 0.00 | 0.00 | 0.00 | 47 | 1012.2 |
| 20260509152604 | 72 | 172 | 6.0 | 12.0 | 0.00 | 0.00 | 0.00 | 47 | 1012.2 |
| 20260509152505 | 72 | 171 | 6.0 | 12.0 | 0.00 | 0.00 | 0.00 | 47 | 1012.2 |
| 20260509152306 | 72 | 168 | 5.0 | 12.0 | 0.00 | 0.00 | 0.00 | 47 | 1012.2 |
| 20260509152104 | 72 | 165 | 5.0 | 9.0 | 0.00 | 0.00 | 0.00 | 46 | 1012.2 |
| 20260509151914 | 72 | 167 | 5.0 | 12.0 | 0.00 | 0.00 | 0.00 | 47 | 1012.3 |
| 20260509151705 | 72 | 168 | 5.0 | 12.0 | 0.00 | 0.00 | 0.00 | 47 | 1012.2 |
| 20260509151404 | 72 | 167 | 6.0 | 12.0 | 0.00 | 0.00 | 0.00 | 47 | 1012.2 |
| 20260509151304 | 72 | 167 | 6.0 | 12.0 | 0.00 | 0.00 | 0.00 | 47 | 1012.1 |
| 20260509151205 | 72 | 167 | 6.0 | 12.0 | 0.00 | 0.00 | 0.00 | 47 | 1012.1 |
| 20260509151104 | 72 | 166 | 7.0 | 12.0 | 0.00 | 0.00 | 0.00 | 47 | 1012.0 |
| 20260509150914 | 72 | 166 | 6.0 | 12.0 | 0.00 | 0.00 | 0.00 | 47 | 1012.2 |
| 20260509150804 | 72 | 166 | 6.0 | 12.0 | 0.00 | 0.00 | 0.00 | 47 | 1012.2 |
| 20260509150704 | 72 | 167 | 6.0 | 12.0 | 0.00 | 0.00 | 0.00 | 47 | 1012.1 |
| 20260509150604 | 72 | 170 | 6.0 | 12.0 | 0.00 | 0.00 | 0.00 | 46 | 1012.1 |
| 20260509150504 | 72 | 170 | 6.0 | 12.0 | 0.00 | 0.00 | 0.00 | 47 | 1012.2 |
| 20260509150404 | 73 | 167 | 5.0 | 12.0 | 0.00 | 0.00 | 0.00 | 46 | 1012.2 |
| 20260509150304 | 73 | 165 | 5.0 | 12.0 | 0.00 | 0.00 | 0.00 | 47 | 1012.1 |
| 20260509150204 | 73 | 168 | 5.0 | 12.0 | 0.00 | 0.00 | 0.00 | 46 | 1012.4 |
| 20260509150104 | 73 | 173 | 4.0 | 12.0 | 0.00 | 0.00 | 0.00 | 46 | 1012.1 |
| 20260509150004 | 73 | 174 | 3.0 | 7.0 | 0.00 | 0.00 | 0.00 | 45 | 1012.1 |
| 20260509145913 | 73 | 174 | 3.0 | 7.0 | 0.00 | 0.00 | 0.00 | 44 | 1012.2 |
| 20260509145704 | 73 | 185 | 3.0 | 7.0 | 0.00 | 0.00 | 0.00 | 44 | 1012.1 |
| 20260509145604 | 73 | 192 | 3.0 | 6.0 | 0.00 | 0.00 | 0.00 | 44 | 1012.1 |
| 20260509145505 | 74 | 200 | 3.0 | 6.0 | 0.00 | 0.00 | 0.00 | 44 | 1012.1 |
| 20260509145104 | 74 | 201 | 4.0 | 9.0 | 0.00 | 0.00 | 0.00 | 45 | 1012.1 |
| 20260509145004 | 74 | 199 | 4.0 | 9.0 | 0.00 | 0.00 | 0.00 | 44 | 1012.0 |
| 20260509144904 | 74 | 200 | 4.0 | 9.0 | 0.00 | 0.00 | 0.00 | 44 | 1012.1 |
| 20260509144612 | 73 | 188 | 4.0 | 9.0 | 0.00 | 0.00 | 0.00 | 45 | 1012.1 |
| 20260509144504 | 73 | 186 | 4.0 | 9.0 | 0.00 | 0.00 | 0.00 | 45 | 1012.1 |
| 20260509144204 | 74 | 179 | 3.0 | 9.0 | 0.00 | 0.00 | 0.00 | 43 | 1012.0 |
| 20260509144104 | 74 | 165 | 2.0 | 7.0 | 0.00 | 0.00 | 0.00 | 43 | 1012.1 |
| 20260509144004 | 74 | 147 | 2.0 | 5.0 | 0.00 | 0.00 | 0.00 | 42 | 1012.0 |
| 20260509143904 | 74 | 148 | 2.0 | 5.0 | 0.00 | 0.00 | 0.00 | 42 | 1012.0 |
| 20260509143804 | 74 | 150 | 2.0 | 5.0 | 0.00 | 0.00 | 0.00 | 41 | 1012.0 |
| 20260509143606 | 74 | 163 | 2.0 | 6.0 | 0.00 | 0.00 | 0.00 | 41 | 1012.0 |
| 20260509143504 | 74 | 169 | 2.0 | 6.0 | 0.00 | 0.00 | 0.00 | 41 | 1012.0 |
| 20260509143403 | 74 | 178 | 2.0 | 6.0 | 0.00 | 0.00 | 0.00 | 40 | 1012.1 |
| 20260509143314 | 74 | 193 | 2.0 | 6.0 | 0.00 | 0.00 | 0.00 | 41 | 1012.1 |
| 20260509143204 | 74 | 194 | 3.0 | 6.0 | 0.00 | 0.00 | 0.00 | 41 | 1012.1 |
| 20260509143105 | 74 | 193 | 2.0 | 6.0 | 0.00 | 0.00 | 0.00 | 41 | 1012.0 |
| 20260509142903 | 75 | 194 | 2.0 | 6.0 | 0.00 | 0.00 | 0.00 | 41 | 1012.0 |
| 20260509142804 | 74 | 195 | 2.0 | 6.0 | 0.00 | 0.00 | 0.00 | 41 | 1012.0 |
| 20260509142704 | 74 | 199 | 2.0 | 6.0 | 0.00 | 0.00 | 0.00 | 41 | 1012.1 |
| 20260509142605 | 74 | 187 | 2.0 | 6.0 | 0.00 | 0.00 | 0.00 | 41 | 1012.2 |
| 20260509142505 | 74 | 181 | 2.0 | 7.0 | 0.00 | 0.00 | 0.00 | 40 | 1012.1 |
| 20260509142404 | 74 | 174 | 2.0 | 7.0 | 0.00 | 0.00 | 0.00 | 40 | 1012.1 |
| 20260509142312 | 75 | 161 | 2.0 | 7.0 | 0.00 | 0.00 | 0.00 | 40 | 1012.1 |
| 20260509142203 | 75 | 149 | 2.0 | 7.0 | 0.00 | 0.00 | 0.00 | 40 | 1012.1 |
| 20260509142103 | 75 | 153 | 2.0 | 7.0 | 0.00 | 0.00 | 0.00 | 40 | 1012.0 |
| 20260509141904 | 75 | 158 | 2.0 | 7.0 | 0.00 | 0.00 | 0.00 | 39 | 1012.1 |
| 20260509141804 | 75 | 150 | 2.0 | 7.0 | 0.00 | 0.00 | 0.00 | 39 | 1012.1 |
| 20260509141704 | 75 | 142 | 2.0 | 7.0 | 0.00 | 0.00 | 0.00 | 39 | 1012.1 |
| 20260509141604 | 75 | 133 | 2.0 | 7.0 | 0.00 | 0.00 | 0.00 | 39 | 1012.1 |
| 20260509141504 | 75 | 138 | 2.0 | 6.0 | 0.00 | 0.00 | 0.00 | 40 | 1012.1 |
| 20260509141404 | 75 | 138 | 2.0 | 6.0 | 0.00 | 0.00 | 0.00 | 39 | 1012.1 |
| 20260509141304 | 75 | 134 | 2.0 | 6.0 | 0.00 | 0.00 | 0.00 | 39 | 1012.1 |
| 20260509141204 | 75 | 131 | 2.0 | 6.0 | 0.00 | 0.00 | 0.00 | 39 | 1012.1 |
| 20260509141103 | 75 | 124 | 2.0 | 6.0 | 0.00 | 0.00 | 0.00 | 39 | 1012.1 |
| 20260509140904 | 75 | 112 | 3.0 | 10.0 | 0.00 | 0.00 | 0.00 | 38 | 1012.2 |
| 20260509140716 | 74 | 105 | 4.0 | 10.0 | 0.00 | 0.00 | 0.00 | 39 | 1012.3 |
| 20260509140404 | 74 | 95 | 3.0 | 10.0 | 0.00 | 0.00 | 0.00 | 38 | 1012.2 |
| 20260509140204 | 74 | 100 | 4.0 | 10.0 | 0.00 | 0.00 | 0.00 | 37 | 1012.2 |
| 20260509140104 | 74 | 102 | 4.0 | 10.0 | 0.00 | 0.00 | 0.00 | 37 | 1012.3 |
| 20260509140006 | 74 | 103 | 4.0 | 10.0 | 0.00 | 0.00 | 0.00 | 36 | 1012.3 |
| 20260509135904 | 74 | 104 | 4.0 | 9.0 | 0.00 | 0.00 | 0.00 | 36 | 1012.3 |
| 20260509135803 | 75 | 110 | 4.0 | 9.0 | 0.00 | 0.00 | 0.00 | 35 | 1012.4 |
| 20260509135715 | 75 | 111 | 3.0 | 8.0 | 0.00 | 0.00 | 0.00 | 36 | 1012.3 |
| 20260509135604 | 75 | 117 | 3.0 | 8.0 | 0.00 | 0.00 | 0.00 | 37 | 1012.4 |
| 20260509135504 | 75 | 129 | 3.0 | 8.0 | 0.00 | 0.00 | 0.00 | 37 | 1012.3 |
| 20260509135404 | 75 | 133 | 3.0 | 8.0 | 0.00 | 0.00 | 0.00 | 37 | 1012.3 |
| 20260509135306 | 75 | 132 | 3.0 | 8.0 | 0.00 | 0.00 | 0.00 | 37 | 1012.4 |
| 20260509135104 | 75 | 125 | 3.0 | 8.0 | 0.00 | 0.00 | 0.00 | 38 | 1012.5 |
| 20260509135007 | 75 | 120 | 3.0 | 8.0 | 0.00 | 0.00 | 0.00 | 38 | 1012.4 |
| 20260509134903 | 75 | 116 | 2.0 | 7.0 | 0.00 | 0.00 | 0.00 | 38 | 1012.5 |
| 20260509134804 | 75 | 118 | 2.0 | 7.0 | 0.00 | 0.00 | 0.00 | 37 | 1012.4 |
| 20260509134716 | 75 | 121 | 3.0 | 7.0 | 0.00 | 0.00 | 0.00 | 37 | 1012.5 |
| 20260509134604 | 75 | 116 | 3.0 | 7.0 | 0.00 | 0.00 | 0.00 | 36 | 1012.5 |
| 20260509134504 | 75 | 103 | 2.0 | 7.0 | 0.00 | 0.00 | 0.00 | 36 | 1012.5 |
| 20260509134404 | 75 | 99 | 3.0 | 7.0 | 0.00 | 0.00 | 0.00 | 37 | 1012.5 |
| 20260509134304 | 74 | 104 | 3.0 | 7.0 | 0.00 | 0.00 | 0.00 | 37 | 1012.7 |
| 20260509134204 | 74 | 107 | 3.0 | 7.0 | 0.00 | 0.00 | 0.00 | 37 | 1012.6 |
| 20260509134104 | 74 | 118 | 2.0 | 7.0 | 0.00 | 0.00 | 0.00 | 37 | 1012.6 |
| 20260509134005 | 74 | 122 | 2.0 | 7.0 | 0.00 | 0.00 | 0.00 | 37 | 1012.7 |
| 20260509133904 | 74 | 114 | 3.0 | 8.0 | 0.00 | 0.00 | 0.00 | 37 | 1012.7 |
| 20260509133804 | 74 | 111 | 3.0 | 8.0 | 0.00 | 0.00 | 0.00 | 37 | 1012.7 |
| 20260509133712 | 74 | 118 | 3.0 | 8.0 | 0.00 | 0.00 | 0.00 | 37 | 1012.7 |
| 20260509133604 | 74 | 121 | 3.0 | 8.0 | 0.00 | 0.00 | 0.00 | 37 | 1012.7 |
| 20260509133511 | 74 | 130 | 3.0 | 8.0 | 0.00 | 0.00 | 0.00 | 37 | 1012.7 |
| 20260509133404 | 74 | 140 | 4.0 | 8.0 | 0.00 | 0.00 | 0.00 | 37 | 1012.7 |
| 20260509133305 | 74 | 143 | 4.0 | 10.0 | 0.00 | 0.00 | 0.00 | 37 | 1012.7 |
| 20260509133204 | 74 | 143 | 4.0 | 10.0 | 0.00 | 0.00 | 0.00 | 37 | 1012.7 |
| 20260509133104 | 74 | 138 | 4.0 | 10.0 | 0.00 | 0.00 | 0.00 | 37 | 1012.7 |
| 20260509133005 | 74 | 138 | 4.0 | 10.0 | 0.00 | 0.00 | 0.00 | 37 | 1012.7 |
| 20260509132904 | 74 | 147 | 4.0 | 10.0 | 0.00 | 0.00 | 0.00 | 37 | 1012.8 |
| 20260509132713 | 74 | 158 | 4.0 | 10.0 | 0.00 | 0.00 | 0.00 | 39 | 1012.8 |
| 20260509132505 | 75 | 158 | 5.0 | 10.0 | 0.00 | 0.00 | 0.00 | 38 | 1012.8 |
| 20260509132404 | 75 | 165 | 5.0 | 10.0 | 0.00 | 0.00 | 0.00 | 39 | 1012.8 |
| 20260509132306 | 75 | 174 | 5.0 | 13.0 | 0.00 | 0.00 | 0.00 | 39 | 1012.7 |
| 20260509132204 | 75 | 175 | 6.0 | 13.0 | 0.00 | 0.00 | 0.00 | 38 | 1012.8 |
| 20260509132104 | 75 | 179 | 6.0 | 13.0 | 0.00 | 0.00 | 0.00 | 39 | 1012.8 |
| 20260509132005 | 74 | 184 | 6.0 | 13.0 | 0.00 | 0.00 | 0.00 | 40 | 1012.9 |
| 20260509131904 | 74 | 190 | 6.0 | 13.0 | 0.00 | 0.00 | 0.00 | 39 | 1012.7 |
| 20260509131804 | 74 | 192 | 6.0 | 13.0 | 0.00 | 0.00 | 0.00 | 39 | 1012.8 |
| 20260509131714 | 75 | 189 | 5.0 | 13.0 | 0.00 | 0.00 | 0.00 | 39 | 1012.8 |
| 20260509131603 | 75 | 190 | 5.0 | 13.0 | 0.00 | 0.00 | 0.00 | 39 | 1012.8 |
| 20260509131504 | 75 | 193 | 5.0 | 13.0 | 0.00 | 0.00 | 0.00 | 38 | 1012.7 |
| 20260509131404 | 75 | 187 | 4.0 | 13.0 | 0.00 | 0.00 | 0.00 | 39 | 1012.7 |
| 20260509131303 | 75 | 166 | 4.0 | 11.0 | 0.00 | 0.00 | 0.00 | 39 | 1012.8 |
| 20260509131205 | 75 | 157 | 3.0 | 11.0 | 0.00 | 0.00 | 0.00 | 40 | 1012.7 |
| 20260509131104 | 75 | 111 | 3.0 | 7.0 | 0.00 | 0.00 | 0.00 | 40 | 1012.8 |
| 20260509131004 | 74 | 102 | 3.0 | 7.0 | 0.00 | 0.00 | 0.00 | 40 | 1012.7 |
| 20260509130712 | 75 | 81 | 3.0 | 10.0 | 0.00 | 0.00 | 0.00 | 39 | 1012.7 |
| 20260509130604 | 75 | 79 | 4.0 | 10.0 | 0.00 | 0.00 | 0.00 | 40 | 1012.7 |
| 20260509130504 | 75 | 76 | 4.0 | 10.0 | 0.00 | 0.00 | 0.00 | 40 | 1012.7 |
| 20260509130404 | 74 | 73 | 4.0 | 10.0 | 0.00 | 0.00 | 0.00 | 41 | 1012.8 |
| 20260509130304 | 74 | 73 | 4.0 | 10.0 | 0.00 | 0.00 | 0.00 | 41 | 1012.9 |
| 20260509130104 | 74 | 71 | 4.0 | 10.0 | 0.00 | 0.00 | 0.00 | 41 | 1012.9 |
| 20260509130005 | 73 | 72 | 4.0 | 10.0 | 0.00 | 0.00 | 0.00 | 41 | 1012.9 |
| 20260509125904 | 73 | 75 | 4.0 | 10.0 | 0.00 | 0.00 | 0.00 | 40 | 1012.8 |
| 20260509125713 | 74 | 73 | 4.0 | 9.0 | 0.00 | 0.00 | 0.00 | 40 | 1012.8 |
| 20260509125505 | 74 | 82 | 3.0 | 9.0 | 0.00 | 0.00 | 0.00 | 41 | 1012.9 |
| 20260509125403 | 74 | 90 | 3.0 | 9.0 | 0.00 | 0.00 | 0.00 | 41 | 1012.9 |
| 20260509125307 | 74 | 90 | 3.0 | 9.0 | 0.00 | 0.00 | 0.00 | 41 | 1012.9 |
| 20260509125204 | 74 | 91 | 4.0 | 9.0 | 0.00 | 0.00 | 0.00 | 41 | 1012.9 |
| 20260509125104 | 74 | 91 | 4.0 | 9.0 | 0.00 | 0.00 | 0.00 | 42 | 1013.0 |
| 20260509125005 | 73 | 90 | 4.0 | 9.0 | 0.00 | 0.00 | 0.00 | 41 | 1013.0 |
| 20260509124904 | 74 | 87 | 3.0 | 8.0 | 0.00 | 0.00 | 0.00 | 40 | 1012.9 |
| 20260509124804 | 74 | 79 | 4.0 | 8.0 | 0.00 | 0.00 | 0.00 | 40 | 1013.0 |
| 20260509124604 | 74 | 77 | 4.0 | 8.0 | 0.00 | 0.00 | 0.00 | 41 | 1013.0 |
| 20260509124504 | 74 | 78 | 4.0 | 8.0 | 0.00 | 0.00 | 0.00 | 41 | 1013.0 |
| 20260509124412 | 73 | 75 | 4.0 | 8.0 | 0.00 | 0.00 | 0.00 | 41 | 1013.0 |
| 20260509124204 | 73 | 74 | 4.0 | 8.0 | 0.00 | 0.00 | 0.00 | 41 | 1013.1 |
| 20260509124103 | 73 | 76 | 5.0 | 8.0 | 0.00 | 0.00 | 0.00 | 40 | 1012.9 |
| 20260509124004 | 73 | 71 | 4.0 | 8.0 | 0.00 | 0.00 | 0.00 | 40 | 1012.9 |
| 20260509123904 | 73 | 68 | 4.0 | 8.0 | 0.00 | 0.00 | 0.00 | 40 | 1012.9 |
| 20260509123804 | 73 | 70 | 4.0 | 8.0 | 0.00 | 0.00 | 0.00 | 40 | 1013.0 |
| 20260509123704 | 73 | 69 | 5.0 | 8.0 | 0.00 | 0.00 | 0.00 | 40 | 1013.0 |
| 20260509123604 | 73 | 67 | 5.0 | 9.0 | 0.00 | 0.00 | 0.00 | 39 | 1013.1 |
| 20260509123504 | 73 | 66 | 5.0 | 9.0 | 0.00 | 0.00 | 0.00 | 39 | 1013.0 |
| 20260509123405 | 73 | 65 | 5.0 | 9.0 | 0.00 | 0.00 | 0.00 | 40 | 1013.1 |
| 20260509123304 | 73 | 61 | 5.0 | 9.0 | 0.00 | 0.00 | 0.00 | 41 | 1013.1 |
| 20260509123204 | 73 | 56 | 5.0 | 9.0 | 0.00 | 0.00 | 0.00 | 41 | 1012.9 |
| 20260509123004 | 73 | 64 | 5.0 | 9.0 | 0.00 | 0.00 | 0.00 | 41 | 1012.9 |
| 20260509122904 | 73 | 69 | 5.0 | 10.0 | 0.00 | 0.00 | 0.00 | 41 | 1013.0 |
| 20260509122803 | 73 | 74 | 6.0 | 10.0 | 0.00 | 0.00 | 0.00 | 41 | 1013.0 |
| 20260509122604 | 72 | 79 | 6.0 | 10.0 | 0.00 | 0.00 | 0.00 | 41 | 1013.1 |
| 20260509122504 | 72 | 79 | 6.0 | 10.0 | 0.00 | 0.00 | 0.00 | 42 | 1013.1 |
| 20260509122404 | 72 | 81 | 6.0 | 10.0 | 0.00 | 0.00 | 0.00 | 41 | 1013.1 |
| 20260509122306 | 72 | 81 | 6.0 | 10.0 | 0.00 | 0.00 | 0.00 | 41 | 1013.1 |
| 20260509122204 | 72 | 83 | 6.0 | 10.0 | 0.00 | 0.00 | 0.00 | 40 | 1013.2 |
| 20260509122113 | 72 | 83 | 6.0 | 10.0 | 0.00 | 0.00 | 0.00 | 41 | 1013.2 |
| 20260509122004 | 72 | 82 | 6.0 | 10.0 | 0.00 | 0.00 | 0.00 | 41 | 1013.1 |
| 20260509121804 | 72 | 81 | 5.0 | 9.0 | 0.00 | 0.00 | 0.00 | 41 | 1013.2 |
| 20260509121704 | 72 | 81 | 5.0 | 9.0 | 0.00 | 0.00 | 0.00 | 40 | 1013.3 |
| 20260509121604 | 72 | 83 | 5.0 | 9.0 | 0.00 | 0.00 | 0.00 | 40 | 1013.3 |
| 20260509121504 | 72 | 84 | 5.0 | 8.0 | 0.00 | 0.00 | 0.00 | 40 | 1013.2 |
| 20260509121404 | 72 | 85 | 5.0 | 8.0 | 0.00 | 0.00 | 0.00 | 41 | 1013.2 |
| 20260509121304 | 72 | 86 | 5.0 | 8.0 | 0.00 | 0.00 | 0.00 | 41 | 1013.3 |
| 20260509121106 | 72 | 88 | 5.0 | 8.0 | 0.00 | 0.00 | 0.00 | 40 | 1013.3 |
| 20260509121004 | 72 | 89 | 5.0 | 8.0 | 0.00 | 0.00 | 0.00 | 40 | 1013.2 |
| 20260509120904 | 72 | 88 | 4.0 | 8.0 | 0.00 | 0.00 | 0.00 | 40 | 1013.2 |
| 20260509120815 | 72 | 88 | 4.0 | 8.0 | 0.00 | 0.00 | 0.00 | 40 | 1013.2 |
| 20260509120704 | 72 | 89 | 4.0 | 8.0 | 0.00 | 0.00 | 0.00 | 40 | 1013.3 |
| 20260509120604 | 72 | 88 | 4.0 | 8.0 | 0.00 | 0.00 | 0.00 | 40 | 1013.2 |
| 20260509120504 | 73 | 88 | 4.0 | 8.0 | 0.00 | 0.00 | 0.00 | 39 | 1013.3 |
| 20260509120404 | 73 | 86 | 3.0 | 8.0 | 0.00 | 0.00 | 0.00 | 40 | 1013.2 |
| 20260509120304 | 73 | 82 | 3.0 | 8.0 | 0.00 | 0.00 | 0.00 | 40 | 1013.2 |
| 20260509120204 | 73 | 82 | 3.0 | 8.0 | 0.00 | 0.00 | 0.00 | 40 | 1013.3 |
| 20260509120004 | 73 | 75 | 3.0 | 8.0 | 0.00 | 0.00 | 0.00 | 40 | 1013.3 |
| 20260509115904 | 73 | 72 | 3.0 | 8.0 | 0.00 | 0.00 | 0.00 | 40 | 1013.3 |
| 20260509115814 | 73 | 69 | 3.0 | 8.0 | 0.00 | 0.00 | 0.00 | 40 | 1013.3 |
| 20260509115704 | 73 | 65 | 3.0 | 8.0 | 0.00 | 0.00 | 0.00 | 40 | 1013.3 |
| 20260509115604 | 73 | 64 | 3.0 | 8.0 | 0.00 | 0.00 | 0.00 | 40 | 1013.3 |
| 20260509115504 | 72 | 65 | 4.0 | 8.0 | 0.00 | 0.00 | 0.00 | 40 | 1013.3 |
| 20260509115404 | 72 | 66 | 4.0 | 8.0 | 0.00 | 0.00 | 0.00 | 41 | 1013.4 |
| 20260509115307 | 72 | 69 | 4.0 | 9.0 | 0.00 | 0.00 | 0.00 | 41 | 1013.4 |
| 20260509115204 | 72 | 70 | 5.0 | 9.0 | 0.00 | 0.00 | 0.00 | 41 | 1013.4 |
| 20260509115106 | 71 | 70 | 5.0 | 9.0 | 0.00 | 0.00 | 0.00 | 41 | 1013.4 |
| 20260509115005 | 71 | 71 | 5.0 | 9.0 | 0.00 | 0.00 | 0.00 | 42 | 1013.4 |
| 20260509114905 | 71 | 72 | 5.0 | 9.0 | 0.00 | 0.00 | 0.00 | 42 | 1013.4 |
| 20260509114704 | 71 | 75 | 5.0 | 9.0 | 0.00 | 0.00 | 0.00 | 41 | 1013.4 |
| 20260509114604 | 71 | 73 | 5.0 | 9.0 | 0.00 | 0.00 | 0.00 | 42 | 1013.4 |
| 20260509114504 | 71 | 73 | 5.0 | 9.0 | 0.00 | 0.00 | 0.00 | 42 | 1013.5 |
| 20260509114304 | 71 | 70 | 5.0 | 9.0 | 0.00 | 0.00 | 0.00 | 42 | 1013.4 |
| 20260509114204 | 71 | 69 | 5.0 | 9.0 | 0.00 | 0.00 | 0.00 | 43 | 1013.5 |
| 20260509114105 | 71 | 72 | 5.0 | 9.0 | 0.00 | 0.00 | 0.00 | 43 | 1013.5 |
| 20260509114004 | 71 | 74 | 5.0 | 9.0 | 0.00 | 0.00 | 0.00 | 43 | 1013.6 |
| 20260509113903 | 71 | 77 | 5.0 | 9.0 | 0.00 | 0.00 | 0.00 | 43 | 1013.6 |
| 20260509113814 | 71 | 80 | 5.0 | 9.0 | 0.00 | 0.00 | 0.00 | 42 | 1013.6 |
| 20260509113604 | 71 | 79 | 5.0 | 10.0 | 0.00 | 0.00 | 0.00 | 41 | 1013.6 |
| 20260509113404 | 72 | 79 | 5.0 | 10.0 | 0.00 | 0.00 | 0.00 | 43 | 1013.6 |
| 20260509113305 | 72 | 80 | 5.0 | 10.0 | 0.00 | 0.00 | 0.00 | 44 | 1013.7 |
| 20260509113204 | 72 | 78 | 5.0 | 10.0 | 0.00 | 0.00 | 0.00 | 44 | 1013.7 |
| 20260509113104 | 72 | 75 | 5.0 | 11.0 | 0.00 | 0.00 | 0.00 | 44 | 1013.7 |
| 20260509113004 | 71 | 76 | 5.0 | 11.0 | 0.00 | 0.00 | 0.00 | 45 | 1013.8 |
| 20260509112903 | 71 | 76 | 5.0 | 11.0 | 0.00 | 0.00 | 0.00 | 44 | 1013.7 |
| 20260509112705 | 71 | 77 | 5.0 | 11.0 | 0.00 | 0.00 | 0.00 | 45 | 1013.7 |
| 20260509112604 | 71 | 77 | 5.0 | 11.0 | 0.00 | 0.00 | 0.00 | 44 | 1013.7 |
| 20260509112504 | 72 | 78 | 4.0 | 11.0 | 0.00 | 0.00 | 0.00 | 43 | 1013.7 |
| 20260509112404 | 72 | 81 | 4.0 | 11.0 | 0.00 | 0.00 | 0.00 | 44 | 1013.7 |
| 20260509112306 | 72 | 84 | 4.0 | 11.0 | 0.00 | 0.00 | 0.00 | 44 | 1013.7 |
| 20260509112204 | 72 | 85 | 5.0 | 11.0 | 0.00 | 0.00 | 0.00 | 44 | 1013.8 |
| 20260509112103 | 72 | 87 | 5.0 | 11.0 | 0.00 | 0.00 | 0.00 | 44 | 1013.8 |
| 20260509112004 | 72 | 88 | 5.0 | 11.0 | 0.00 | 0.00 | 0.00 | 45 | 1014.0 |
| 20260509111904 | 72 | 86 | 5.0 | 11.0 | 0.00 | 0.00 | 0.00 | 45 | 1013.8 |
| 20260509111812 | 72 | 82 | 4.0 | 11.0 | 0.00 | 0.00 | 0.00 | 45 | 1013.9 |
| 20260509111704 | 72 | 82 | 4.0 | 11.0 | 0.00 | 0.00 | 0.00 | 46 | 1013.8 |
| 20260509111504 | 71 | 86 | 5.0 | 11.0 | 0.00 | 0.00 | 0.00 | 46 | 1014.0 |
| 20260509111304 | 71 | 88 | 5.0 | 11.0 | 0.00 | 0.00 | 0.00 | 45 | 1014.0 |
| 20260509111204 | 71 | 87 | 4.0 | 10.0 | 0.00 | 0.00 | 0.00 | 46 | 1013.9 |
| 20260509111104 | 71 | 85 | 5.0 | 9.0 | 0.00 | 0.00 | 0.00 | 47 | 1014.0 |
| 20260509111004 | 71 | 84 | 5.0 | 9.0 | 0.00 | 0.00 | 0.00 | 48 | 1014.0 |
| 20260509110904 | 71 | 84 | 5.0 | 10.0 | 0.00 | 0.00 | 0.00 | 48 | 1014.1 |
| 20260509110604 | 71 | 88 | 5.0 | 11.0 | 0.00 | 0.00 | 0.00 | 47 | 1014.1 |
| 20260509110405 | 70 | 82 | 5.0 | 11.0 | 0.00 | 0.00 | 0.00 | 49 | 1014.2 |
| 20260509110304 | 70 | 84 | 5.0 | 11.0 | 0.00 | 0.00 | 0.00 | 48 | 1014.3 |
| 20260509110204 | 70 | 86 | 5.0 | 11.0 | 0.00 | 0.00 | 0.00 | 48 | 1014.2 |
| 20260509110104 | 70 | 86 | 5.0 | 11.0 | 0.00 | 0.00 | 0.00 | 49 | 1014.3 |
| 20260509110004 | 70 | 87 | 5.0 | 11.0 | 0.00 | 0.00 | 0.00 | 48 | 1014.2 |
| 20260509105904 | 71 | 88 | 5.0 | 11.0 | 0.00 | 0.00 | 0.00 | 47 | 1014.2 |
| 20260509105704 | 71 | 92 | 5.0 | 10.0 | 0.00 | 0.00 | 0.00 | 48 | 1014.3 |
| 20260509105604 | 71 | 95 | 5.0 | 10.0 | 0.00 | 0.00 | 0.00 | 48 | 1014.2 |
| 20260509105515 | 71 | 96 | 5.0 | 10.0 | 0.00 | 0.00 | 0.00 | 48 | 1014.2 |
| 20260509105403 | 70 | 97 | 5.0 | 10.0 | 0.00 | 0.00 | 0.00 | 48 | 1014.4 |
| 20260509105306 | 70 | 100 | 5.0 | 10.0 | 0.00 | 0.00 | 0.00 | 48 | 1014.3 |
| 20260509105204 | 71 | 101 | 5.0 | 10.0 | 0.00 | 0.00 | 0.00 | 48 | 1014.3 |
| 20260509105104 | 71 | 104 | 5.0 | 10.0 | 0.00 | 0.00 | 0.00 | 48 | 1014.4 |
| 20260509105004 | 71 | 103 | 5.0 | 10.0 | 0.00 | 0.00 | 0.00 | 48 | 1014.4 |
| 20260509104904 | 71 | 100 | 5.0 | 10.0 | 0.00 | 0.00 | 0.00 | 47 | 1014.3 |
| 20260509104806 | 71 | 95 | 4.0 | 9.0 | 0.00 | 0.00 | 0.00 | 48 | 1014.4 |
| 20260509104704 | 71 | 95 | 4.0 | 8.0 | 0.00 | 0.00 | 0.00 | 48 | 1014.5 |
| 20260509104604 | 70 | 92 | 4.0 | 8.0 | 0.00 | 0.00 | 0.00 | 49 | 1014.5 |
| 20260509104404 | 70 | 90 | 5.0 | 10.0 | 0.00 | 0.00 | 0.00 | 48 | 1014.5 |
| 20260509104203 | 70 | 86 | 5.0 | 11.0 | 0.00 | 0.00 | 0.00 | 49 | 1014.4 |
| 20260509104108 | 70 | 88 | 5.0 | 11.0 | 0.00 | 0.00 | 0.00 | 49 | 1014.5 |
| 20260509104004 | 70 | 90 | 5.0 | 11.0 | 0.00 | 0.00 | 0.00 | 49 | 1014.5 |
| 20260509103804 | 70 | 90 | 6.0 | 11.0 | 0.00 | 0.00 | 0.00 | 49 | 1014.6 |
| 20260509103704 | 69 | 90 | 6.0 | 11.0 | 0.00 | 0.00 | 0.00 | 50 | 1014.6 |
| 20260509103604 | 69 | 90 | 6.0 | 11.0 | 0.00 | 0.00 | 0.00 | 49 | 1014.6 |
| 20260509103504 | 69 | 89 | 6.0 | 11.0 | 0.00 | 0.00 | 0.00 | 49 | 1014.6 |
| 20260509103404 | 69 | 89 | 6.0 | 11.0 | 0.00 | 0.00 | 0.00 | 49 | 1014.7 |
| 20260509103104 | 69 | 81 | 4.0 | 10.0 | 0.00 | 0.00 | 0.00 | 51 | 1014.7 |
| 20260509103004 | 69 | 81 | 4.0 | 10.0 | 0.00 | 0.00 | 0.00 | 51 | 1014.7 |
| 20260509102904 | 69 | 81 | 4.0 | 10.0 | 0.00 | 0.00 | 0.00 | 51 | 1014.7 |
| 20260509102804 | 69 | 80 | 4.0 | 10.0 | 0.00 | 0.00 | 0.00 | 51 | 1014.8 |
| 20260509102604 | 70 | 79 | 3.0 | 9.0 | 0.00 | 0.00 | 0.00 | 50 | 1014.7 |
| 20260509102504 | 70 | 79 | 3.0 | 9.0 | 0.00 | 0.00 | 0.00 | 52 | 1014.8 |
| 20260509102404 | 69 | 85 | 3.0 | 9.0 | 0.00 | 0.00 | 0.00 | 52 | 1014.8 |
| 20260509102306 | 69 | 87 | 3.0 | 9.0 | 0.00 | 0.00 | 0.00 | 53 | 1014.9 |
| 20260509102205 | 69 | 90 | 4.0 | 9.0 | 0.00 | 0.00 | 0.00 | 52 | 1014.9 |
| 20260509102103 | 69 | 90 | 4.0 | 9.0 | 0.00 | 0.00 | 0.00 | 52 | 1014.9 |
| 20260509102004 | 69 | 87 | 5.0 | 9.0 | 0.00 | 0.00 | 0.00 | 51 | 1014.9 |
| 20260509101913 | 69 | 88 | 5.0 | 9.0 | 0.00 | 0.00 | 0.00 | 51 | 1014.8 |
| 20260509101804 | 69 | 90 | 4.0 | 9.0 | 0.00 | 0.00 | 0.00 | 52 | 1015.0 |
| 20260509101704 | 69 | 87 | 4.0 | 9.0 | 0.00 | 0.00 | 0.00 | 52 | 1014.9 |
| 20260509101603 | 69 | 88 | 4.0 | 9.0 | 0.00 | 0.00 | 0.00 | 52 | 1014.9 |
| 20260509101504 | 69 | 88 | 5.0 | 9.0 | 0.00 | 0.00 | 0.00 | 52 | 1014.9 |
| 20260509101404 | 69 | 85 | 5.0 | 9.0 | 0.00 | 0.00 | 0.00 | 52 | 1015.0 |
| 20260509101304 | 68 | 84 | 5.0 | 9.0 | 0.00 | 0.00 | 0.00 | 52 | 1015.0 |
| 20260509101204 | 68 | 82 | 5.0 | 9.0 | 0.00 | 0.00 | 0.00 | 51 | 1014.9 |
| 20260509101104 | 69 | 82 | 4.0 | 9.0 | 0.00 | 0.00 | 0.00 | 51 | 1014.9 |
| 20260509101005 | 69 | 83 | 4.0 | 9.0 | 0.00 | 0.00 | 0.00 | 51 | 1014.9 |
| 20260509100913 | 69 | 87 | 3.0 | 9.0 | 0.00 | 0.00 | 0.00 | 52 | 1014.9 |
| 20260509100803 | 69 | 89 | 3.0 | 9.0 | 0.00 | 0.00 | 0.00 | 52 | 1014.9 |
| 20260509100704 | 69 | 90 | 3.0 | 9.0 | 0.00 | 0.00 | 0.00 | 52 | 1014.9 |
| 20260509100604 | 69 | 89 | 3.0 | 9.0 | 0.00 | 0.00 | 0.00 | 51 | 1014.9 |
| 20260509100504 | 69 | 90 | 3.0 | 8.0 | 0.00 | 0.00 | 0.00 | 49 | 1014.8 |
| 20260509100404 | 69 | 91 | 2.0 | 7.0 | 0.00 | 0.00 | 0.00 | 50 | 1014.8 |
| 20260509100204 | 70 | 95 | 2.0 | 9.0 | 0.00 | 0.00 | 0.00 | 51 | 1014.9 |
| 20260509100104 | 70 | 95 | 3.0 | 9.0 | 0.00 | 0.00 | 0.00 | 50 | 1014.9 |
| 20260509100005 | 69 | 93 | 3.0 | 9.0 | 0.00 | 0.00 | 0.00 | 50 | 1014.9 |